Time,TemperatureF,DewpointF,PressureIn,WindDirection,WindDirectionDegrees,WindSpeedMPH,WindSpeedGustMPH,Humidity,HourlyPrecipIn,Conditions,Clouds,dailyrainin,SoftwareType,DateUTC
2013-02-23 00:05:00,19.7,12.4,30.05,WSW,256,6.0,6.0,73,0.00,,,0.00,Wunderground v.1.15,2013-02-23 07:05:00,
2013-02-23 00:06:00,19.5,11.6,30.05,WSW,257,5.0,6.0,71,0.00,,,0.00,Wunderground v.1.15,2013-02-23 07:06:00,
2013-02-23 00:08:00,19.1,10.9,30.05,SW,221,3.0,6.0,70,0.00,,,0.00,Wunderground v.1.15,2013-02-23 07:08:00,
2013-02-23 00:09:00,18.9,11.0,30.04,WSW,250,5.0,6.0,71,0.00,,,0.00,Wunderground v.1.15,2013-02-23 07:09:00,
2013-02-23 00:14:00,18.7,10.9,30.04,WSW,257,6.0,7.0,71,0.00,,,0.00,Wunderground v.1.15,2013-02-23 07:14:00,
2013-02-23 00:16:00,18.8,11.3,30.04,WSW,257,7.0,7.0,72,0.00,,,0.00,Wunderground v.1.15,2013-02-23 07:16:00,
2013-02-23 00:20:00,18.3,10.8,30.05,WSW,253,6.0,6.0,72,0.00,,,0.00,Wunderground v.1.15,2013-02-23 07:20:00,
2013-02-23 00:22:00,19.0,12.1,30.05,West,262,5.0,6.0,74,0.00,,,0.00,Wunderground v.1.15,2013-02-23 07:22:00,
2013-02-23 00:24:00,19.4,12.2,30.04,SSE,167,2.0,6.0,73,0.00,,,0.00,Wunderground v.1.15,2013-02-23 07:24:00,
2013-02-23 00:26:00,19.4,11.5,30.04,WSW,250,6.0,6.0,71,0.00,,,0.00,Wunderground v.1.15,2013-02-23 07:26:00,
2013-02-23 00:29:00,19.4,12.5,30.04,WSW,255,4.0,6.0,74,0.00,,,0.00,Wunderground v.1.15,2013-02-23 07:29:00,
2013-02-23 00:30:00,19.4,11.8,30.04,SW,215,1.0,5.0,72,0.00,,,0.00,Wunderground v.1.15,2013-02-23 07:30:00,
2013-02-23 00:32:00,19.4,11.8,30.04,West,273,4.0,5.0,72,0.00,,,0.00,Wunderground v.1.15,2013-02-23 07:32:00,
2013-02-23 00:35:00,19.3,11.7,30.04,West,259,4.0,5.0,72,0.00,,,0.00,Wunderground v.1.15,2013-02-23 07:35:00,
2013-02-23 00:36:00,19.2,11.3,30.04,WSW,250,4.0,5.0,71,0.00,,,0.00,Wunderground v.1.15,2013-02-23 07:36:00,
2013-02-23 00:37:00,19.2,11.3,30.04,WSW,245,4.0,5.0,71,0.00,,,0.00,Wunderground v.1.15,2013-02-23 07:37:00,
2013-02-23 00:41:00,19.2,11.3,30.04,WNW,286,3.0,3.0,71,0.00,,,0.00,Wunderground v.1.15,2013-02-23 07:41:00,
2013-02-23 00:42:00,19.0,10.5,30.04,WNW,285,2.0,3.0,69,0.00,,,0.00,Wunderground v.1.15,2013-02-23 07:42:00,
2013-02-23 00:44:00,18.3,10.5,30.04,WSW,245,4.0,4.0,71,0.00,,,0.00,Wunderground v.1.15,2013-02-23 07:44:00,
2013-02-23 00:45:00,18.2,11.0,30.04,SW,235,3.0,4.0,73,0.00,,,0.00,Wunderground v.1.15,2013-02-23 07:45:00,
2013-02-23 00:49:00,18.8,11.6,30.03,West,262,6.0,6.0,73,0.00,,,0.00,Wunderground v.1.15,2013-02-23 07:49:00,
2013-02-23 00:50:00,18.8,11.3,30.03,WSW,253,6.0,6.0,72,0.00,,,0.00,Wunderground v.1.15,2013-02-23 07:50:00,
2013-02-23 00:51:00,18.8,10.9,30.03,WSW,257,6.0,6.0,71,0.00,,,0.00,Wunderground v.1.15,2013-02-23 07:51:00,
2013-02-23 00:53:00,18.7,10.9,30.04,WSW,250,5.0,6.0,71,0.00,,,0.00,Wunderground v.1.15,2013-02-23 07:53:00,
2013-02-23 00:54:00,18.7,10.9,30.03,West,259,6.0,6.0,71,0.00,,,0.00,Wunderground v.1.15,2013-02-23 07:54:00,
2013-02-23 00:55:00,18.6,10.8,30.03,West,260,5.0,6.0,71,0.00,,,0.00,Wunderground v.1.15,2013-02-23 07:55:00,
2013-02-23 00:59:00,18.6,11.1,30.03,WSW,253,4.0,6.0,72,0.00,,,0.00,Wunderground v.1.15,2013-02-23 07:59:00,
2013-02-23 01:00:00,18.6,11.1,30.03,WSW,256,6.0,6.0,72,0.00,,,0.00,Wunderground v.1.15,2013-02-23 08:00:00,
2013-02-23 01:01:00,18.6,10.8,30.03,WSW,240,3.0,6.0,71,0.00,,,0.00,Wunderground v.1.15,2013-02-23 08:01:00,
2013-02-23 01:06:00,18.5,10.7,30.03,WSW,252,2.0,6.0,71,0.00,,,0.00,Wunderground v.1.15,2013-02-23 08:06:00,
2013-02-23 01:07:00,18.5,10.7,30.03,WSW,253,2.0,6.0,71,0.00,,,0.00,Wunderground v.1.15,2013-02-23 08:07:00,
2013-02-23 01:08:00,18.6,10.4,30.03,WSW,248,4.0,6.0,70,0.00,,,0.00,Wunderground v.1.15,2013-02-23 08:08:00,
2013-02-23 01:11:00,18.8,10.3,30.03,WSW,248,3.0,4.0,69,0.00,,,0.00,Wunderground v.1.15,2013-02-23 08:11:00,
2013-02-23 01:12:00,18.7,10.2,30.03,SSW,193,3.0,4.0,69,0.00,,,0.00,Wunderground v.1.15,2013-02-23 08:12:00,
2013-02-23 01:14:00,18.5,10.0,30.03,SSW,204,3.0,4.0,69,0.00,,,0.00,Wunderground v.1.15,2013-02-23 08:14:00,
2013-02-23 01:16:00,18.4,9.9,30.03,West,263,5.0,5.0,69,0.00,,,0.00,Wunderground v.1.15,2013-02-23 08:16:00,
2013-02-23 01:19:00,18.3,10.1,30.03,SW,219,3.0,5.0,70,0.00,,,0.00,Wunderground v.1.15,2013-02-23 08:19:00,
2013-02-23 01:20:00,18.2,9.7,30.03,SSW,207,3.0,4.0,69,0.00,,,0.00,Wunderground v.1.15,2013-02-23 08:20:00,
2013-02-23 01:21:00,18.2,10.1,30.03,SW,227,5.0,5.0,70,0.00,,,0.00,Wunderground v.1.15,2013-02-23 08:21:00,
2013-02-23 01:27:00,17.7,9.6,30.03,West,264,4.0,6.0,70,0.00,,,0.00,Wunderground v.1.15,2013-02-23 08:27:00,
2013-02-23 01:28:00,17.7,9.9,30.03,SSW,204,2.0,6.0,71,0.00,,,0.00,Wunderground v.1.15,2013-02-23 08:28:00,
2013-02-23 01:29:00,17.8,9.7,30.03,South,169,2.0,6.0,70,0.00,,,0.00,Wunderground v.1.15,2013-02-23 08:29:00,
2013-02-23 01:33:00,17.7,9.9,30.02,WSW,246,5.0,5.0,71,0.00,,,0.00,Wunderground v.1.15,2013-02-23 08:33:00,
2013-02-23 01:36:00,17.6,9.8,30.02,SSW,212,3.0,5.0,71,0.00,,,0.00,Wunderground v.1.15,2013-02-23 08:36:00,
2013-02-23 01:39:00,17.5,9.7,30.02,SW,235,3.0,5.0,71,0.00,,,0.00,Wunderground v.1.15,2013-02-23 08:39:00,
2013-02-23 01:41:00,17.4,9.6,30.02,West,260,2.0,3.0,71,0.00,,,0.00,Wunderground v.1.15,2013-02-23 08:41:00,
2013-02-23 01:44:00,17.2,9.4,30.02,West,262,3.0,3.0,71,0.00,,,0.00,Wunderground v.1.15,2013-02-23 08:44:00,
2013-02-23 01:45:00,17.0,9.2,30.02,SW,231,2.0,3.0,71,0.00,,,0.00,Wunderground v.1.15,2013-02-23 08:45:00,
2013-02-23 01:46:00,16.9,9.1,30.02,WSW,250,1.0,3.0,71,0.00,,,0.00,Wunderground v.1.15,2013-02-23 08:46:00,
2013-02-23 01:47:00,16.8,9.3,30.02,SW,224,2.0,3.0,72,0.00,,,0.00,Wunderground v.1.15,2013-02-23 08:47:00,
2013-02-23 01:52:00,16.6,9.1,30.02,SW,222,2.0,3.0,72,0.00,,,0.00,Wunderground v.1.15,2013-02-23 08:52:00,
2013-02-23 01:53:00,16.6,9.4,30.02,SW,215,2.0,3.0,73,0.00,,,0.00,Wunderground v.1.15,2013-02-23 08:53:00,
2013-02-23 01:55:00,16.5,9.4,30.02,WSW,243,4.0,4.0,73,0.00,,,0.00,Wunderground v.1.15,2013-02-23 08:55:00,
2013-02-23 02:01:00,16.0,9.5,30.02,WSW,256,5.0,5.0,75,0.00,,,0.00,Wunderground v.1.15,2013-02-23 09:01:00,
2013-02-23 02:06:00,15.8,8.7,30.02,WSW,252,7.0,7.0,73,0.00,,,0.00,Wunderground v.1.15,2013-02-23 09:06:00,
2013-02-23 02:11:00,15.7,9.2,30.01,WSW,249,7.0,7.0,75,0.00,,,0.00,Wunderground v.1.15,2013-02-23 09:11:00,
2013-02-23 02:16:00,15.9,9.4,30.01,WSW,250,4.0,8.0,75,0.00,,,0.00,Wunderground v.1.15,2013-02-23 09:16:00,
2013-02-23 02:21:00,16.4,9.3,30.01,SW,226,4.0,5.0,73,0.00,,,0.00,Wunderground v.1.15,2013-02-23 09:21:00,
2013-02-23 02:26:00,16.0,8.9,30.01,SSW,205,2.0,8.0,73,0.00,,,0.00,Wunderground v.1.15,2013-02-23 09:26:00,
2013-02-23 02:27:00,16.0,8.9,30.01,SSW,200,3.0,8.0,73,0.00,,,0.00,Wunderground v.1.15,2013-02-23 09:27:00,
2013-02-23 02:31:00,16.4,9.9,30.01,WSW,255,3.0,4.0,75,0.00,,,0.00,Wunderground v.1.15,2013-02-23 09:31:00,
2013-02-23 02:32:00,16.4,9.9,30.01,West,259,4.0,4.0,75,0.00,,,0.00,Wunderground v.1.15,2013-02-23 09:32:00,
2013-02-23 02:36:00,15.7,8.6,30.00,WSW,256,4.0,7.0,73,0.00,,,0.00,Wunderground v.1.15,2013-02-23 09:36:00,
2013-02-23 02:37:00,15.6,8.5,30.00,WSW,240,5.0,7.0,73,0.00,,,0.00,Wunderground v.1.15,2013-02-23 09:37:00,
2013-02-23 02:41:00,15.4,8.9,30.00,SSW,207,3.0,5.0,75,0.00,,,0.00,Wunderground v.1.15,2013-02-23 09:41:00,
2013-02-23 02:42:00,15.3,8.8,30.00,SW,216,4.0,5.0,75,0.00,,,0.00,Wunderground v.1.15,2013-02-23 09:42:00,
2013-02-23 02:46:00,15.4,9.2,30.00,WSW,238,4.0,6.0,76,0.00,,,0.00,Wunderground v.1.15,2013-02-23 09:46:00,
2013-02-23 02:47:00,15.5,9.0,30.00,South,186,4.0,6.0,75,0.00,,,0.00,Wunderground v.1.15,2013-02-23 09:47:00,
2013-02-23 02:51:00,15.4,8.6,30.00,WSW,256,6.0,7.0,74,0.00,,,0.00,Wunderground v.1.15,2013-02-23 09:51:00,
2013-02-23 02:52:00,15.2,8.1,30.00,West,263,5.0,7.0,73,0.00,,,0.00,Wunderground v.1.15,2013-02-23 09:52:00,
2013-02-23 02:56:00,15.0,8.8,30.00,SW,235,4.0,7.0,76,0.00,,,0.00,Wunderground v.1.15,2013-02-23 09:56:00,
2013-02-23 02:57:00,15.1,8.9,30.00,West,259,6.0,7.0,76,0.00,,,0.00,Wunderground v.1.15,2013-02-23 09:57:00,
2013-02-23 02:58:00,15.1,8.9,30.00,WSW,248,5.0,7.0,76,0.00,,,0.00,Wunderground v.1.15,2013-02-23 09:58:00,
2013-02-23 03:01:00,15.2,9.0,30.00,SW,229,3.0,5.0,76,0.00,,,0.00,Wunderground v.1.15,2013-02-23 10:01:00,
2013-02-23 03:02:00,15.2,9.0,30.00,WSW,243,3.0,5.0,76,0.00,,,0.00,Wunderground v.1.15,2013-02-23 10:02:00,
2013-02-23 03:03:00,15.4,9.2,29.99,WSW,257,5.0,5.0,76,0.00,,,0.00,Wunderground v.1.15,2013-02-23 10:03:00,
2013-02-23 03:07:00,15.0,8.2,29.99,West,259,6.0,7.0,74,0.00,,,0.00,Wunderground v.1.15,2013-02-23 10:07:00,
2013-02-23 03:08:00,15.0,8.5,30.00,WSW,255,7.0,7.0,75,0.00,,,0.00,Wunderground v.1.15,2013-02-23 10:08:00,
2013-02-23 03:12:00,15.3,9.1,30.00,SW,233,3.0,5.0,76,0.00,,,0.00,Wunderground v.1.15,2013-02-23 10:12:00,
2013-02-23 03:13:00,15.5,9.3,30.00,SSW,212,3.0,5.0,76,0.00,,,0.00,Wunderground v.1.15,2013-02-23 10:13:00,
2013-02-23 03:17:00,15.6,8.8,30.00,WSW,240,4.0,6.0,74,0.00,,,0.00,Wunderground v.1.15,2013-02-23 10:17:00,
2013-02-23 03:18:00,15.5,9.0,30.00,SSW,213,4.0,6.0,75,0.00,,,0.00,Wunderground v.1.15,2013-02-23 10:18:00,
2013-02-23 03:22:00,15.4,9.2,30.00,WSW,242,4.0,5.0,76,0.00,,,0.00,Wunderground v.1.15,2013-02-23 10:22:00,
2013-02-23 03:23:00,15.4,9.2,29.99,SW,234,4.0,5.0,76,0.00,,,0.00,Wunderground v.1.15,2013-02-23 10:23:00,
2013-02-23 03:24:00,15.3,8.8,29.99,WSW,255,5.0,6.0,75,0.00,,,0.00,Wunderground v.1.15,2013-02-23 10:24:00,
2013-02-23 03:27:00,15.2,9.0,29.99,SSW,207,2.0,6.0,76,0.00,,,0.00,Wunderground v.1.15,2013-02-23 10:27:00,
2013-02-23 03:28:00,15.2,9.0,29.99,SW,232,4.0,6.0,76,0.00,,,0.00,Wunderground v.1.15,2013-02-23 10:28:00,
2013-02-23 03:29:00,15.2,9.0,29.99,SW,225,3.0,6.0,76,0.00,,,0.00,Wunderground v.1.15,2013-02-23 10:29:00,
2013-02-23 03:32:00,15.4,8.6,29.99,WSW,241,5.0,7.0,74,0.00,,,0.00,Wunderground v.1.15,2013-02-23 10:32:00,
2013-02-23 03:33:00,15.4,8.6,29.99,WSW,246,5.0,7.0,74,0.00,,,0.00,Wunderground v.1.15,2013-02-23 10:33:00,
2013-02-23 03:34:00,15.4,8.9,29.99,SW,215,2.0,7.0,75,0.00,,,0.00,Wunderground v.1.15,2013-02-23 10:34:00,
2013-02-23 03:38:00,15.8,9.0,29.99,WSW,240,2.0,7.0,74,0.00,,,0.00,Wunderground v.1.15,2013-02-23 10:38:00,
2013-02-23 03:39:00,15.9,9.1,29.99,SW,235,2.0,7.0,74,0.00,,,0.00,Wunderground v.1.15,2013-02-23 10:39:00,
2013-02-23 03:43:00,16.2,8.8,29.99,West,266,6.0,7.0,72,0.00,,,0.00,Wunderground v.1.15,2013-02-23 10:43:00,
2013-02-23 03:44:00,16.1,9.0,29.99,SW,236,4.0,7.0,73,0.00,,,0.00,Wunderground v.1.15,2013-02-23 10:44:00,
2013-02-23 03:48:00,15.7,8.6,29.98,WSW,250,4.0,7.0,73,0.00,,,0.00,Wunderground v.1.15,2013-02-23 10:48:00,
2013-02-23 03:49:00,15.8,9.0,29.98,SW,231,3.0,7.0,74,0.00,,,0.00,Wunderground v.1.15,2013-02-23 10:49:00,
2013-02-23 03:53:00,16.1,9.0,29.98,SW,222,3.0,5.0,73,0.00,,,0.00,Wunderground v.1.15,2013-02-23 10:53:00,
2013-02-23 03:54:00,16.2,9.1,29.98,SW,226,5.0,5.0,73,0.00,,,0.00,Wunderground v.1.15,2013-02-23 10:54:00,
2013-02-23 03:58:00,16.9,9.1,29.98,WSW,238,3.0,5.0,71,0.00,,,0.00,Wunderground v.1.15,2013-02-23 10:58:00,
2013-02-23 03:59:00,17.0,9.2,29.98,SW,231,3.0,5.0,71,0.00,,,0.00,Wunderground v.1.15,2013-02-23 10:59:00,
2013-02-23 04:03:00,17.1,9.0,29.98,West,259,5.0,6.0,70,0.00,,,0.00,Wunderground v.1.15,2013-02-23 11:03:00,
2013-02-23 04:04:00,17.0,8.9,29.98,WSW,250,4.0,6.0,70,0.00,,,0.00,Wunderground v.1.15,2013-02-23 11:04:00,
2013-02-23 04:08:00,16.7,8.9,29.98,SSW,193,3.0,6.0,71,0.00,,,0.00,Wunderground v.1.15,2013-02-23 11:08:00,
2013-02-23 04:09:00,16.7,8.9,29.97,SW,219,4.0,6.0,71,0.00,,,0.00,Wunderground v.1.15,2013-02-23 11:09:00,
2013-02-23 04:14:00,16.7,8.9,29.97,SW,229,2.0,6.0,71,0.00,,,0.00,Wunderground v.1.15,2013-02-23 11:14:00,
2013-02-23 04:15:00,16.7,8.6,29.97,WSW,245,2.0,6.0,70,0.00,,,0.00,Wunderground v.1.15,2013-02-23 11:15:00,
2013-02-23 04:19:00,17.2,9.1,29.98,WSW,240,3.0,6.0,70,0.00,,,0.00,Wunderground v.1.15,2013-02-23 11:19:00,
2013-02-23 04:20:00,17.2,9.1,29.97,WSW,249,4.0,6.0,70,0.00,,,0.00,Wunderground v.1.15,2013-02-23 11:20:00,
2013-02-23 04:24:00,17.0,8.9,29.97,SSW,208,1.0,5.0,70,0.00,,,0.00,Wunderground v.1.15,2013-02-23 11:24:00,
2013-02-23 04:25:00,17.0,8.9,29.97,South,191,4.0,5.0,70,0.00,,,0.00,Wunderground v.1.15,2013-02-23 11:25:00,
2013-02-23 04:29:00,16.6,8.5,29.97,WSW,246,3.0,6.0,70,0.00,,,0.00,Wunderground v.1.15,2013-02-23 11:29:00,
2013-02-23 04:30:00,16.5,8.4,29.97,SW,227,3.0,4.0,70,0.00,,,0.00,Wunderground v.1.15,2013-02-23 11:30:00,
2013-02-23 04:34:00,16.3,8.5,29.97,SW,215,3.0,4.0,71,0.00,,,0.00,Wunderground v.1.15,2013-02-23 11:34:00,
2013-02-23 04:35:00,16.3,8.5,29.97,SSW,210,3.0,4.0,71,0.00,,,0.00,Wunderground v.1.15,2013-02-23 11:35:00,
2013-02-23 04:39:00,16.3,8.5,29.97,SSW,208,3.0,6.0,71,0.00,,,0.00,Wunderground v.1.15,2013-02-23 11:39:00,
2013-02-23 04:40:00,16.3,8.5,29.97,SW,235,4.0,4.0,71,0.00,,,0.00,Wunderground v.1.15,2013-02-23 11:40:00,
2013-02-23 04:44:00,16.0,8.3,29.97,SW,232,4.0,4.0,71,0.00,,,0.00,Wunderground v.1.15,2013-02-23 11:44:00,
2013-02-23 04:45:00,16.0,8.3,29.97,SW,222,4.0,4.0,71,0.00,,,0.00,Wunderground v.1.15,2013-02-23 11:45:00,
2013-02-23 04:46:00,16.0,8.6,29.97,SW,221,3.0,4.0,72,0.00,,,0.00,Wunderground v.1.15,2013-02-23 11:46:00,
2013-02-23 04:49:00,16.0,8.6,29.97,SW,226,2.0,5.0,72,0.00,,,0.00,Wunderground v.1.15,2013-02-23 11:49:00,
2013-02-23 04:50:00,16.0,8.6,29.97,SSW,199,3.0,3.0,72,0.00,,,0.00,Wunderground v.1.15,2013-02-23 11:50:00,
2013-02-23 04:51:00,16.0,8.6,29.97,SSW,213,3.0,6.0,72,0.00,,,0.00,Wunderground v.1.15,2013-02-23 11:51:00,
2013-02-23 04:55:00,16.0,9.2,29.97,SW,215,4.0,6.0,74,0.00,,,0.00,Wunderground v.1.15,2013-02-23 11:55:00,
2013-02-23 04:56:00,16.2,9.4,29.97,WSW,238,2.0,6.0,74,0.00,,,0.00,Wunderground v.1.15,2013-02-23 11:56:00,
2013-02-23 05:00:00,16.2,9.1,29.97,West,266,3.0,3.0,73,0.00,,,0.00,Wunderground v.1.15,2013-02-23 12:00:00,
2013-02-23 05:01:00,16.2,9.1,29.97,West,274,2.0,4.0,73,0.00,,,0.00,Wunderground v.1.15,2013-02-23 12:01:00,
2013-02-23 05:05:00,16.3,9.8,29.97,SW,221,4.0,4.0,75,0.00,,,0.00,Wunderground v.1.15,2013-02-23 12:05:00,
2013-02-23 05:06:00,16.4,9.9,29.97,WSW,243,5.0,6.0,75,0.00,,,0.00,Wunderground v.1.15,2013-02-23 12:06:00,
2013-02-23 05:10:00,16.3,9.5,29.97,SW,228,0.0,3.0,74,0.00,,,0.00,Wunderground v.1.15,2013-02-23 12:10:00,
2013-02-23 05:11:00,16.2,9.4,29.96,SW,225,2.0,3.0,74,0.00,,,0.00,Wunderground v.1.15,2013-02-23 12:11:00,
2013-02-23 05:12:00,16.2,9.7,29.96,SW,228,3.0,3.0,75,0.00,,,0.00,Wunderground v.1.15,2013-02-23 12:12:00,
2013-02-23 05:15:00,16.7,10.4,29.96,WSW,238,2.0,4.0,76,0.00,,,0.00,Wunderground v.1.15,2013-02-23 12:15:00,
2013-02-23 05:16:00,16.7,10.4,29.96,WSW,241,1.0,4.0,76,0.00,,,0.00,Wunderground v.1.15,2013-02-23 12:16:00,
2013-02-23 05:17:00,16.8,10.2,29.96,WSW,242,0.0,4.0,75,0.00,,,0.00,Wunderground v.1.15,2013-02-23 12:17:00,
2013-02-23 05:20:00,16.6,9.8,29.96,SW,235,4.0,5.0,74,0.00,,,0.00,Wunderground v.1.15,2013-02-23 12:20:00,
2013-02-23 05:21:00,16.5,9.7,29.96,SW,231,4.0,5.0,74,0.00,,,0.00,Wunderground v.1.15,2013-02-23 12:21:00,
2013-02-23 05:22:00,16.4,9.3,29.96,WSW,243,2.0,5.0,73,0.00,,,0.00,Wunderground v.1.15,2013-02-23 12:22:00,
2013-02-23 05:25:00,16.1,9.3,29.95,South,188,2.0,6.0,74,0.00,,,0.00,Wunderground v.1.15,2013-02-23 12:25:00,
2013-02-23 05:26:00,16.1,9.3,29.96,SSW,192,3.0,6.0,74,0.00,,,0.00,Wunderground v.1.15,2013-02-23 12:26:00,
2013-02-23 05:27:00,16.1,9.6,29.96,WSW,238,4.0,6.0,75,0.00,,,0.00,Wunderground v.1.15,2013-02-23 12:27:00,
2013-02-23 05:30:00,16.4,9.6,29.95,SW,235,3.0,4.0,74,0.00,,,0.00,Wunderground v.1.15,2013-02-23 12:30:00,
2013-02-23 05:31:00,16.6,9.8,29.95,West,260,3.0,6.0,74,0.00,,,0.00,Wunderground v.1.15,2013-02-23 12:31:00,
2013-02-23 05:32:00,16.7,9.8,29.95,WSW,243,4.0,6.0,74,0.00,,,0.00,Wunderground v.1.15,2013-02-23 12:32:00,
2013-02-23 05:35:00,16.8,9.6,29.95,SSW,195,2.0,6.0,73,0.00,,,0.00,Wunderground v.1.15,2013-02-23 12:35:00,
2013-02-23 05:37:00,16.8,9.9,29.95,WSW,240,3.0,6.0,74,0.00,,,0.00,Wunderground v.1.15,2013-02-23 12:37:00,
2013-02-23 05:40:00,16.7,9.2,29.95,SW,231,3.0,5.0,72,0.00,,,0.00,Wunderground v.1.15,2013-02-23 12:40:00,
2013-02-23 05:42:00,16.7,9.2,29.95,WSW,238,2.0,5.0,72,0.00,,,0.00,Wunderground v.1.15,2013-02-23 12:42:00,
2013-02-23 05:46:00,16.6,10.1,29.95,SW,226,2.0,5.0,75,0.00,,,0.00,Wunderground v.1.15,2013-02-23 12:46:00,
2013-02-23 05:47:00,16.6,9.8,29.95,WSW,245,2.0,5.0,74,0.00,,,0.00,Wunderground v.1.15,2013-02-23 12:47:00,
2013-02-23 05:51:00,16.7,9.2,29.95,WSW,255,4.0,5.0,72,0.00,,,0.00,Wunderground v.1.15,2013-02-23 12:51:00,
2013-02-23 05:52:00,16.6,9.1,29.95,SSW,200,3.0,5.0,72,0.00,,,0.00,Wunderground v.1.15,2013-02-23 12:52:00,
2013-02-23 05:56:00,16.3,9.2,29.94,WSW,257,3.0,5.0,73,0.00,,,0.00,Wunderground v.1.15,2013-02-23 12:56:00,
2013-02-23 05:57:00,16.4,9.3,29.94,WSW,252,3.0,5.0,73,0.00,,,0.00,Wunderground v.1.15,2013-02-23 12:57:00,
2013-02-23 06:01:00,16.7,9.5,29.94,WSW,257,3.0,5.0,73,0.00,,,0.00,Wunderground v.1.15,2013-02-23 13:01:00,
2013-02-23 06:02:00,16.7,9.5,29.95,West,269,3.0,6.0,73,0.00,,,0.00,Wunderground v.1.15,2013-02-23 13:02:00,
2013-02-23 06:06:00,16.8,9.6,29.94,SSW,197,3.0,7.0,73,0.00,,,0.00,Wunderground v.1.15,2013-02-23 13:06:00,
2013-02-23 06:07:00,16.8,9.6,29.94,SSW,207,3.0,7.0,73,0.00,,,0.00,Wunderground v.1.15,2013-02-23 13:07:00,
2013-02-23 06:08:00,16.9,9.7,29.94,WSW,238,2.0,7.0,73,0.00,,,0.00,Wunderground v.1.15,2013-02-23 13:08:00,
2013-02-23 06:12:00,17.2,9.7,29.94,West,269,2.0,3.0,72,0.00,,,0.00,Wunderground v.1.15,2013-02-23 13:12:00,
2013-02-23 06:13:00,17.3,9.8,29.94,West,273,2.0,3.0,72,0.00,,,0.00,Wunderground v.1.15,2013-02-23 13:13:00,
2013-02-23 06:17:00,17.5,9.7,29.94,SW,235,4.0,4.0,71,0.00,,,0.00,Wunderground v.1.15,2013-02-23 13:17:00,
2013-02-23 06:18:00,17.5,9.7,29.94,WSW,249,4.0,5.0,71,0.00,,,0.00,Wunderground v.1.15,2013-02-23 13:18:00,
2013-02-23 06:22:00,17.5,9.7,29.94,SW,215,3.0,3.0,71,0.00,,,0.00,Wunderground v.1.15,2013-02-23 13:22:00,
2013-02-23 06:23:00,17.4,9.6,29.94,SW,220,4.0,4.0,71,0.00,,,0.00,Wunderground v.1.15,2013-02-23 13:23:00,
2013-02-23 06:27:00,17.6,9.8,29.94,SSW,200,3.0,5.0,71,0.00,,,0.00,Wunderground v.1.15,2013-02-23 13:27:00,
2013-02-23 06:28:00,17.7,10.2,29.94,SSW,202,6.0,6.0,72,0.00,,,0.00,Wunderground v.1.15,2013-02-23 13:28:00,
2013-02-23 06:32:00,18.3,10.1,29.94,WSW,255,2.0,4.0,70,0.00,,,0.00,Wunderground v.1.15,2013-02-23 13:32:00,
2013-02-23 06:33:00,18.4,10.2,29.94,SW,235,3.0,4.0,70,0.00,,,0.00,Wunderground v.1.15,2013-02-23 13:33:00,
2013-02-23 06:37:00,18.5,10.0,29.94,SSW,208,2.0,4.0,69,0.00,,,0.00,Wunderground v.1.15,2013-02-23 13:37:00,
2013-02-23 06:38:00,18.5,10.0,29.94,SSW,212,2.0,4.0,69,0.00,,,0.00,Wunderground v.1.15,2013-02-23 13:38:00,
2013-02-23 06:42:00,18.5,10.0,29.94,SSW,212,0.0,4.0,69,0.00,,,0.00,Wunderground v.1.15,2013-02-23 13:42:00,
2013-02-23 06:43:00,18.4,9.9,29.94,SSW,212,1.0,4.0,69,0.00,,,0.00,Wunderground v.1.15,2013-02-23 13:43:00,
2013-02-23 06:48:00,18.5,10.7,29.95,SW,215,1.0,5.0,71,0.00,,,0.00,Wunderground v.1.15,2013-02-23 13:48:00,
2013-02-23 06:53:00,18.6,10.4,29.94,SSW,209,3.0,5.0,70,0.00,,,0.00,Wunderground v.1.15,2013-02-23 13:53:00,
2013-02-23 06:58:00,18.7,10.5,29.94,SSW,197,0.0,5.0,70,0.00,,,0.00,Wunderground v.1.15,2013-02-23 13:58:00,
2013-02-23 07:03:00,18.8,10.3,29.94,SW,229,2.0,2.0,69,0.00,,,0.00,Wunderground v.1.15,2013-02-23 14:03:00,
2013-02-23 07:04:00,18.8,10.3,29.94,WSW,245,3.0,4.0,69,0.00,,,0.00,Wunderground v.1.15,2013-02-23 14:04:00,
2013-02-23 07:08:00,18.8,10.9,29.94,WSW,252,1.0,4.0,71,0.00,,,0.00,Wunderground v.1.15,2013-02-23 14:08:00,
2013-02-23 07:09:00,18.9,10.7,29.94,WSW,238,3.0,4.0,70,0.00,,,0.00,Wunderground v.1.15,2013-02-23 14:09:00,
2013-02-23 07:13:00,19.2,11.0,29.95,SW,235,1.0,3.0,70,0.00,,,0.00,Wunderground v.1.15,2013-02-23 14:13:00,
2013-02-23 07:14:00,19.2,11.0,29.95,WSW,256,1.0,3.0,70,0.00,,,0.00,Wunderground v.1.15,2013-02-23 14:14:00,
2013-02-23 07:18:00,19.5,11.0,29.94,South,191,1.0,3.0,69,0.00,,,0.00,Wunderground v.1.15,2013-02-23 14:18:00,
2013-02-23 07:19:00,19.5,11.0,29.94,South,191,1.0,3.0,69,0.00,,,0.00,Wunderground v.1.15,2013-02-23 14:19:00,
2013-02-23 07:23:00,19.7,11.2,29.95,WSW,250,3.0,4.0,69,0.00,,,0.00,Wunderground v.1.15,2013-02-23 14:23:00,
2013-02-23 07:24:00,19.7,11.2,29.95,West,260,3.0,4.0,69,0.00,,,0.00,Wunderground v.1.15,2013-02-23 14:24:00,
2013-02-23 07:28:00,19.8,11.3,29.95,WSW,238,4.0,5.0,69,0.00,,,0.00,Wunderground v.1.15,2013-02-23 14:28:00,
2013-02-23 07:29:00,19.8,11.3,29.95,WSW,257,3.0,5.0,69,0.00,,,0.00,Wunderground v.1.15,2013-02-23 14:29:00,
2013-02-23 07:33:00,20.0,11.1,29.95,SW,214,2.0,4.0,68,0.00,,,0.00,Wunderground v.1.15,2013-02-23 14:33:00,
2013-02-23 07:34:00,20.0,11.1,29.95,SSW,197,1.0,4.0,68,0.00,,,0.00,Wunderground v.1.15,2013-02-23 14:34:00,
2013-02-23 07:38:00,20.6,11.7,29.95,West,260,0.0,4.0,68,0.00,,,0.00,Wunderground v.1.15,2013-02-23 14:38:00,
2013-02-23 07:39:00,20.6,11.7,29.95,West,261,0.0,4.0,68,0.00,,,0.00,Wunderground v.1.15,2013-02-23 14:39:00,
2013-02-23 07:43:00,21.3,12.0,29.95,NE,39,1.0,2.0,67,0.00,,,0.00,Wunderground v.1.15,2013-02-23 14:43:00,
2013-02-23 07:44:00,21.4,12.1,29.96,NE,38,0.0,2.0,67,0.00,,,0.00,Wunderground v.1.15,2013-02-23 14:44:00,
2013-02-23 07:45:00,21.5,12.2,29.96,NE,37,0.0,2.0,67,0.00,,,0.00,Wunderground v.1.15,2013-02-23 14:45:00,
2013-02-23 07:49:00,22.4,12.8,29.96,NE,37,1.0,2.0,66,0.00,,,0.00,Wunderground v.1.15,2013-02-23 14:49:00,
2013-02-23 07:50:00,22.6,12.6,29.96,NE,41,1.0,1.0,65,0.00,,,0.00,Wunderground v.1.15,2013-02-23 14:50:00,
2013-02-23 07:54:00,23.5,13.1,29.96,NE,41,0.0,1.0,64,0.00,,,0.00,Wunderground v.1.15,2013-02-23 14:54:00,
2013-02-23 07:55:00,23.7,12.9,29.96,NE,41,0.0,1.0,63,0.00,,,0.00,Wunderground v.1.15,2013-02-23 14:55:00,
2013-02-23 07:59:00,24.3,12.0,29.96,ENE,65,1.0,1.0,59,0.00,,,0.00,Wunderground v.1.15,2013-02-23 14:59:00,
2013-02-23 08:00:00,24.2,11.9,29.96,East,84,2.0,2.0,59,0.00,,,0.00,Wunderground v.1.15,2013-02-23 15:00:00,
2013-02-23 08:04:00,23.6,12.1,29.96,NE,44,1.0,3.0,61,0.00,,,0.00,Wunderground v.1.15,2013-02-23 15:04:00,
2013-02-23 08:05:00,23.6,12.1,29.96,NE,44,0.0,3.0,61,0.00,,,0.00,Wunderground v.1.15,2013-02-23 15:05:00,
2013-02-23 08:09:00,23.5,12.4,29.96,South,177,4.0,4.0,62,0.00,,,0.00,Wunderground v.1.15,2013-02-23 15:09:00,
2013-02-23 08:10:00,23.6,12.5,29.96,SSE,165,3.0,3.0,62,0.00,,,0.00,Wunderground v.1.15,2013-02-23 15:10:00,
2013-02-23 08:15:00,24.3,12.4,29.96,SSW,211,3.0,4.0,60,0.00,,,0.00,Wunderground v.1.15,2013-02-23 15:15:00,
2013-02-23 08:20:00,24.9,12.6,29.96,SSW,194,2.0,3.0,59,0.00,,,0.00,Wunderground v.1.15,2013-02-23 15:20:00,
2013-02-23 08:25:00,26.2,12.6,29.96,South,187,0.0,3.0,56,0.00,,,0.00,Wunderground v.1.15,2013-02-23 15:25:00,
2013-02-23 08:30:00,26.4,13.2,29.96,East,87,1.0,2.0,57,0.00,,,0.00,Wunderground v.1.15,2013-02-23 15:30:00,
2013-02-23 08:35:00,27.2,14.4,29.95,NNE,23,3.0,3.0,58,0.00,,,0.00,Wunderground v.1.15,2013-02-23 15:35:00,
2013-02-23 08:40:00,27.5,13.8,29.95,ENE,70,1.0,1.0,56,0.00,,,0.00,Wunderground v.1.15,2013-02-23 15:40:00,
2013-02-23 08:41:00,27.5,13.8,29.95,ENE,70,0.0,1.0,56,0.00,,,0.00,Wunderground v.1.15,2013-02-23 15:41:00,
2013-02-23 08:45:00,28.1,13.6,29.95,North,5,0.0,2.0,54,0.00,,,0.00,Wunderground v.1.15,2013-02-23 15:45:00,
2013-02-23 08:46:00,28.2,13.7,29.95,North,5,0.0,2.0,54,0.00,,,0.00,Wunderground v.1.15,2013-02-23 15:46:00,
2013-02-23 08:51:00,28.9,13.0,29.94,NNE,25,4.0,5.0,51,0.00,,,0.00,Wunderground v.1.15,2013-02-23 15:51:00,
2013-02-23 08:56:00,29.0,13.6,29.95,NNE,33,2.0,5.0,52,0.00,,,0.00,Wunderground v.1.15,2013-02-23 15:56:00,
2013-02-23 09:01:00,29.6,13.2,29.94,ENE,77,1.0,2.0,50,0.00,,,0.00,Wunderground v.1.15,2013-02-23 16:01:00,
2013-02-23 09:02:00,29.8,12.9,29.94,NE,43,2.0,2.0,49,0.00,,,0.00,Wunderground v.1.15,2013-02-23 16:02:00,
2013-02-23 09:06:00,30.1,13.7,29.94,NNE,26,1.0,4.0,50,0.00,,,0.00,Wunderground v.1.15,2013-02-23 16:06:00,
2013-02-23 09:07:00,30.1,13.2,29.94,NNE,26,0.0,4.0,49,0.00,,,0.00,Wunderground v.1.15,2013-02-23 16:07:00,
2013-02-23 09:11:00,30.2,11.9,29.94,ENE,68,3.0,5.0,46,0.00,,,0.00,Wunderground v.1.15,2013-02-23 16:11:00,
2013-02-23 09:12:00,30.1,12.3,29.94,ENE,77,2.0,5.0,47,0.00,,,0.00,Wunderground v.1.15,2013-02-23 16:12:00,
2013-02-23 09:16:00,30.0,12.7,29.94,NE,44,3.0,5.0,48,0.00,,,0.00,Wunderground v.1.15,2013-02-23 16:16:00,
2013-02-23 09:17:00,30.0,12.7,29.94,NE,36,2.0,5.0,48,0.00,,,0.00,Wunderground v.1.15,2013-02-23 16:17:00,
2013-02-23 09:21:00,29.8,12.5,29.94,NNE,12,0.0,3.0,48,0.00,,,0.00,Wunderground v.1.15,2013-02-23 16:21:00,
2013-02-23 09:22:00,29.8,12.5,29.94,NNE,12,0.0,3.0,48,0.00,,,0.00,Wunderground v.1.15,2013-02-23 16:22:00,
2013-02-23 09:26:00,29.7,13.8,29.94,NNE,30,6.0,7.0,51,0.00,,,0.00,Wunderground v.1.15,2013-02-23 16:26:00,
2013-02-23 09:27:00,29.6,13.7,29.94,NE,37,6.0,7.0,51,0.00,,,0.00,Wunderground v.1.15,2013-02-23 16:27:00,
2013-02-23 09:31:00,28.8,13.4,29.94,NNE,24,6.0,7.0,52,0.00,,,0.00,Wunderground v.1.15,2013-02-23 16:31:00,
2013-02-23 09:32:00,28.7,13.3,29.94,NNE,30,6.0,7.0,52,0.00,,,0.00,Wunderground v.1.15,2013-02-23 16:32:00,
2013-02-23 09:37:00,28.1,14.0,29.94,ENE,58,1.0,7.0,55,0.00,,,0.00,Wunderground v.1.15,2013-02-23 16:37:00,
2013-02-23 09:42:00,28.1,14.0,29.93,NNE,26,4.0,5.0,55,0.00,,,0.00,Wunderground v.1.15,2013-02-23 16:42:00,
2013-02-23 09:47:00,28.0,14.7,29.94,NNE,15,1.0,5.0,57,0.00,,,0.00,Wunderground v.1.15,2013-02-23 16:47:00,
2013-02-23 09:52:00,28.1,14.8,29.94,WNW,293,2.0,2.0,57,0.00,,,0.00,Wunderground v.1.15,2013-02-23 16:52:00,
2013-02-23 09:53:00,28.1,14.8,29.94,WNW,296,2.0,2.0,57,0.00,,,0.00,Wunderground v.1.15,2013-02-23 16:53:00,
2013-02-23 09:57:00,28.2,14.9,29.93,NNE,30,1.0,2.0,57,0.00,,,0.00,Wunderground v.1.15,2013-02-23 16:57:00,
2013-02-23 09:58:00,28.2,14.9,29.93,NNE,29,0.0,2.0,57,0.00,,,0.00,Wunderground v.1.15,2013-02-23 16:58:00,
2013-02-23 10:02:00,28.2,15.3,29.93,NE,43,3.0,4.0,58,0.00,,,0.00,Wunderground v.1.15,2013-02-23 17:02:00,
2013-02-23 10:03:00,28.2,15.3,29.93,NE,40,2.0,4.0,58,0.00,,,0.00,Wunderground v.1.15,2013-02-23 17:03:00,
2013-02-23 10:07:00,28.1,15.6,29.93,ENE,70,0.0,4.0,59,0.00,,,0.00,Wunderground v.1.15,2013-02-23 17:07:00,
2013-02-23 10:08:00,28.2,15.7,29.93,ENE,70,1.0,4.0,59,0.00,,,0.00,Wunderground v.1.15,2013-02-23 17:08:00,
2013-02-23 10:12:00,28.6,16.1,29.92,ENE,70,0.0,1.0,59,0.00,,,0.00,Wunderground v.1.15,2013-02-23 17:12:00,
2013-02-23 10:13:00,28.6,15.7,29.93,ENE,70,1.0,1.0,58,0.00,,,0.00,Wunderground v.1.15,2013-02-23 17:13:00,
2013-02-23 10:17:00,28.8,15.9,29.92,East,84,2.0,3.0,58,0.00,,,0.00,Wunderground v.1.15,2013-02-23 17:17:00,
2013-02-23 10:18:00,28.9,15.6,29.92,East,82,2.0,3.0,57,0.00,,,0.00,Wunderground v.1.15,2013-02-23 17:18:00,
2013-02-23 10:19:00,28.9,15.6,29.92,East,82,2.0,3.0,57,0.00,,,0.00,Wunderground v.1.15,2013-02-23 17:19:00,
2013-02-23 10:23:00,29.0,15.7,29.92,North,358,2.0,2.0,57,0.00,,,0.00,Wunderground v.1.15,2013-02-23 17:23:00,
2013-02-23 10:24:00,29.1,15.3,29.92,NNE,25,0.0,3.0,56,0.00,,,0.00,Wunderground v.1.15,2013-02-23 17:24:00,
2013-02-23 10:28:00,29.2,14.6,29.92,East,84,1.0,4.0,54,0.00,,,0.00,Wunderground v.1.15,2013-02-23 17:28:00,
2013-02-23 10:29:00,29.2,14.2,29.92,ENE,72,2.0,4.0,53,0.00,,,0.00,Wunderground v.1.15,2013-02-23 17:29:00,
2013-02-23 10:30:00,29.2,14.2,29.92,ENE,78,2.0,2.0,53,0.00,,,0.00,Wunderground v.1.15,2013-02-23 17:30:00,
2013-02-23 10:33:00,29.2,15.0,29.91,ESE,112,0.0,4.0,55,0.00,,,0.00,Wunderground v.1.15,2013-02-23 17:33:00,
2013-02-23 10:34:00,29.2,15.0,29.91,ESE,111,0.0,4.0,55,0.00,,,0.00,Wunderground v.1.15,2013-02-23 17:34:00,
2013-02-23 10:35:00,29.3,14.7,29.91,ESE,110,1.0,4.0,54,0.00,,,0.00,Wunderground v.1.15,2013-02-23 17:35:00,
2013-02-23 10:38:00,29.6,15.4,29.91,NNE,29,0.0,4.0,55,0.00,,,0.00,Wunderground v.1.15,2013-02-23 17:38:00,
2013-02-23 10:39:00,29.6,15.4,29.91,NNE,29,0.0,4.0,55,0.00,,,0.00,Wunderground v.1.15,2013-02-23 17:39:00,
2013-02-23 10:40:00,29.7,15.9,29.91,NNE,25,1.0,2.0,56,0.00,,,0.00,Wunderground v.1.15,2013-02-23 17:40:00,
2013-02-23 10:44:00,29.9,15.3,29.91,ENE,78,1.0,2.0,54,0.00,,,0.00,Wunderground v.1.15,2013-02-23 17:44:00,
2013-02-23 10:45:00,29.8,15.2,29.91,ENE,77,1.0,2.0,54,0.00,,,0.00,Wunderground v.1.15,2013-02-23 17:45:00,
2013-02-23 10:49:00,29.8,16.0,29.91,NNE,20,0.0,4.0,56,0.00,,,0.00,Wunderground v.1.15,2013-02-23 17:49:00,
2013-02-23 10:50:00,29.9,16.5,29.91,NNW,342,3.0,3.0,57,0.00,,,0.00,Wunderground v.1.15,2013-02-23 17:50:00,
2013-02-23 10:54:00,29.9,16.9,29.91,East,85,2.0,3.0,58,0.00,,,0.00,Wunderground v.1.15,2013-02-23 17:54:00,
2013-02-23 10:55:00,29.9,17.7,29.91,ENE,61,1.0,3.0,60,0.00,,,0.00,Wunderground v.1.15,2013-02-23 17:55:00,
2013-02-23 10:59:00,30.1,17.1,29.91,East,79,2.0,3.0,58,0.00,,,0.00,Wunderground v.1.15,2013-02-23 17:59:00,
2013-02-23 11:00:00,30.1,17.1,29.90,ENE,68,2.0,3.0,58,0.00,,,0.00,Wunderground v.1.15,2013-02-23 18:00:00,
2013-02-23 11:04:00,30.2,16.8,29.90,NE,49,1.0,3.0,57,0.00,,,0.00,Wunderground v.1.15,2013-02-23 18:04:00,
2013-02-23 11:05:00,30.2,16.8,29.90,NNE,23,2.0,3.0,57,0.00,,,0.00,Wunderground v.1.15,2013-02-23 18:05:00,
2013-02-23 11:09:00,30.2,16.8,29.90,NE,36,3.0,4.0,57,0.00,,,0.00,Wunderground v.1.15,2013-02-23 18:09:00,
2013-02-23 11:10:00,30.2,16.8,29.90,ENE,68,1.0,2.0,57,0.00,,,0.00,Wunderground v.1.15,2013-02-23 18:10:00,
2013-02-23 11:14:00,30.1,16.3,29.89,ENE,77,2.0,5.0,56,0.00,,,0.00,Wunderground v.1.15,2013-02-23 18:14:00,
2013-02-23 11:15:00,30.1,15.9,29.89,ENE,74,0.0,5.0,55,0.00,,,0.00,Wunderground v.1.15,2013-02-23 18:15:00,
2013-02-23 11:19:00,30.4,15.7,29.90,North,360,2.0,5.0,54,0.00,,,0.00,Wunderground v.1.15,2013-02-23 18:19:00,
2013-02-23 11:20:00,30.5,16.2,29.89,North,359,1.0,2.0,55,0.00,,,0.00,Wunderground v.1.15,2013-02-23 18:20:00,
2013-02-23 11:24:00,30.9,14.4,29.89,ENE,65,1.0,3.0,50,0.00,,,0.00,Wunderground v.1.15,2013-02-23 18:24:00,
2013-02-23 11:25:00,30.9,14.4,29.89,ENE,65,1.0,3.0,50,0.00,,,0.00,Wunderground v.1.15,2013-02-23 18:25:00,
2013-02-23 11:26:00,30.9,14.4,29.89,East,89,1.0,3.0,50,0.00,,,0.00,Wunderground v.1.15,2013-02-23 18:26:00,
2013-02-23 11:30:00,31.1,14.6,29.89,NNE,33,4.0,4.0,50,0.00,,,0.00,Wunderground v.1.15,2013-02-23 18:30:00,
2013-02-23 11:31:00,31.1,14.6,29.89,NE,42,3.0,4.0,50,0.00,,,0.00,Wunderground v.1.15,2013-02-23 18:31:00,
2013-02-23 11:35:00,30.9,14.9,29.89,North,357,2.0,5.0,51,0.00,,,0.00,Wunderground v.1.15,2013-02-23 18:35:00,
2013-02-23 11:36:00,30.9,15.3,29.89,East,99,2.0,5.0,52,0.00,,,0.00,Wunderground v.1.15,2013-02-23 18:36:00,
2013-02-23 11:40:00,31.2,15.6,29.89,SE,133,0.0,2.0,52,0.00,,,0.00,Wunderground v.1.15,2013-02-23 18:40:00,
2013-02-23 11:41:00,31.6,16.0,29.89,SE,133,0.0,2.0,52,0.00,,,0.00,Wunderground v.1.15,2013-02-23 18:41:00,
2013-02-23 11:45:00,32.7,16.1,29.88,ENE,70,2.0,3.0,50,0.00,,,0.00,Wunderground v.1.15,2013-02-23 18:45:00,
2013-02-23 11:46:00,32.7,16.1,29.88,East,89,1.0,3.0,50,0.00,,,0.00,Wunderground v.1.15,2013-02-23 18:46:00,
2013-02-23 11:50:00,32.8,16.2,29.88,NW,307,2.0,3.0,50,0.00,,,0.00,Wunderground v.1.15,2013-02-23 18:50:00,
2013-02-23 11:51:00,32.7,16.5,29.88,NNE,23,2.0,4.0,51,0.00,,,0.00,Wunderground v.1.15,2013-02-23 18:51:00,
2013-02-23 11:52:00,32.8,16.6,29.88,North,358,1.0,4.0,51,0.00,,,0.00,Wunderground v.1.15,2013-02-23 18:52:00,
2013-02-23 11:55:00,33.1,16.5,29.88,NW,310,2.0,4.0,50,0.00,,,0.00,Wunderground v.1.15,2013-02-23 18:55:00,
2013-02-23 11:56:00,33.1,16.5,29.88,NNW,335,2.0,4.0,50,0.00,,,0.00,Wunderground v.1.15,2013-02-23 18:56:00,
2013-02-23 11:57:00,33.2,16.5,29.87,NNE,19,3.0,4.0,50,0.00,,,0.00,Wunderground v.1.15,2013-02-23 18:57:00,
2013-02-23 12:00:00,33.4,16.3,29.87,North,350,2.0,3.0,49,0.00,,,0.00,Wunderground v.1.15,2013-02-23 19:00:00,
2013-02-23 12:01:00,33.5,16.4,29.87,NNW,343,1.0,3.0,49,0.00,,,0.00,Wunderground v.1.15,2013-02-23 19:01:00,
2013-02-23 12:02:00,33.6,16.5,29.87,NE,51,4.0,4.0,49,0.00,,,0.00,Wunderground v.1.15,2013-02-23 19:02:00,
2013-02-23 12:06:00,33.3,16.6,29.87,NNE,30,4.0,5.0,50,0.00,,,0.00,Wunderground v.1.15,2013-02-23 19:06:00,
2013-02-23 12:07:00,33.1,16.5,29.87,NNE,27,5.0,6.0,50,0.00,,,0.00,Wunderground v.1.15,2013-02-23 19:07:00,
2013-02-23 12:11:00,32.5,16.4,29.86,East,91,2.0,4.0,51,0.00,,,0.00,Wunderground v.1.15,2013-02-23 19:11:00,
2013-02-23 12:12:00,32.5,16.8,29.86,East,97,2.0,4.0,52,0.00,,,0.00,Wunderground v.1.15,2013-02-23 19:12:00,
2013-02-23 12:16:00,32.8,14.8,29.86,SE,134,0.0,4.0,47,0.00,,,0.00,Wunderground v.1.15,2013-02-23 19:16:00,
2013-02-23 12:17:00,32.9,14.8,29.86,East,101,2.0,4.0,47,0.00,,,0.00,Wunderground v.1.15,2013-02-23 19:17:00,
2013-02-23 12:21:00,33.0,13.4,29.86,ENE,68,2.0,3.0,44,0.00,,,0.00,Wunderground v.1.15,2013-02-23 19:21:00,
2013-02-23 12:22:00,33.0,13.9,29.86,NNE,33,5.0,5.0,45,0.00,,,0.00,Wunderground v.1.15,2013-02-23 19:22:00,
2013-02-23 12:26:00,32.5,16.4,29.86,NNE,26,6.0,9.0,51,0.00,,,0.00,Wunderground v.1.15,2013-02-23 19:26:00,
2013-02-23 12:27:00,32.5,15.9,29.86,NNE,33,5.0,9.0,50,0.00,,,0.00,Wunderground v.1.15,2013-02-23 19:27:00,
2013-02-23 12:31:00,32.4,15.3,29.86,East,94,3.0,6.0,49,0.00,,,0.00,Wunderground v.1.15,2013-02-23 19:31:00,
2013-02-23 12:32:00,32.4,14.9,29.86,ENE,67,3.0,6.0,48,0.00,,,0.00,Wunderground v.1.15,2013-02-23 19:32:00,
2013-02-23 12:37:00,32.5,15.9,29.86,ESE,103,3.0,6.0,50,0.00,,,0.00,Wunderground v.1.15,2013-02-23 19:37:00,
2013-02-23 12:42:00,32.7,16.1,29.86,ESE,112,2.0,5.0,50,0.00,,,0.00,Wunderground v.1.15,2013-02-23 19:42:00,
2013-02-23 12:47:00,33.9,16.3,29.85,ESE,103,0.0,5.0,48,0.00,,,0.00,Wunderground v.1.15,2013-02-23 19:47:00,
2013-02-23 12:48:00,34.1,16.4,29.85,ESE,103,0.0,5.0,48,0.00,,,0.00,Wunderground v.1.15,2013-02-23 19:48:00,
2013-02-23 12:52:00,35.3,16.0,29.84,SE,136,1.0,3.0,45,0.00,,,0.00,Wunderground v.1.15,2013-02-23 19:52:00,
2013-02-23 12:53:00,35.3,16.0,29.84,SSE,155,1.0,3.0,45,0.00,,,0.00,Wunderground v.1.15,2013-02-23 19:53:00,
2013-02-23 13:08:00,35.7,15.4,29.83,East,81,7.0,7.0,43,0.00,,,0.00,Wunderground v.1.15,2013-02-23 20:08:00,
2013-02-23 13:13:00,34.2,17.0,29.83,East,86,5.0,8.0,49,0.00,,,0.01,Wunderground v.1.15,2013-02-23 20:13:00,
2013-02-23 13:14:00,34.1,16.9,29.83,East,88,6.0,8.0,49,0.00,,,0.01,Wunderground v.1.15,2013-02-23 20:14:00,
2013-02-23 13:18:00,33.2,17.0,29.83,East,86,3.0,9.0,51,0.00,,,0.01,Wunderground v.1.15,2013-02-23 20:18:00,
2013-02-23 13:19:00,33.1,16.5,29.83,ENE,63,3.0,5.0,50,0.00,,,0.01,Wunderground v.1.15,2013-02-23 20:19:00,
2013-02-23 13:23:00,33.4,17.2,29.83,ENE,64,6.0,7.0,51,0.00,,,0.01,Wunderground v.1.15,2013-02-23 20:23:00,
2013-02-23 13:24:00,33.5,18.2,29.83,East,89,6.0,7.0,53,0.00,,,0.01,Wunderground v.1.15,2013-02-23 20:24:00,
2013-02-23 13:29:00,33.5,17.7,29.82,NE,46,5.0,5.0,52,0.00,,,0.01,Wunderground v.1.15,2013-02-23 20:29:00,
2013-02-23 13:34:00,33.5,16.4,29.82,NNE,23,6.0,10.0,49,0.00,,,0.01,Wunderground v.1.15,2013-02-23 20:34:00,
2013-02-23 13:39:00,33.2,17.0,29.82,East,86,6.0,6.0,51,0.00,,,0.01,Wunderground v.1.15,2013-02-23 20:39:00,
2013-02-23 13:40:00,33.2,17.5,29.82,ENE,74,1.0,6.0,52,0.00,,,0.01,Wunderground v.1.15,2013-02-23 20:40:00,
2013-02-23 13:44:00,33.3,17.5,29.82,NNE,16,3.0,6.0,52,0.00,,,0.01,Wunderground v.1.15,2013-02-23 20:44:00,
2013-02-23 13:45:00,33.3,17.5,29.82,NNW,332,3.0,6.0,52,0.00,,,0.01,Wunderground v.1.15,2013-02-23 20:45:00,
2013-02-23 13:49:00,33.3,17.5,29.82,ESE,108,2.0,3.0,52,0.00,,,0.01,Wunderground v.1.15,2013-02-23 20:49:00,
2013-02-23 13:50:00,33.3,17.5,29.82,East,92,2.0,3.0,52,0.00,,,0.01,Wunderground v.1.15,2013-02-23 20:50:00,
2013-02-23 13:54:00,33.5,18.6,29.82,ESE,104,3.0,4.0,54,0.00,,,0.01,Wunderground v.1.15,2013-02-23 20:54:00,
2013-02-23 13:55:00,33.5,18.6,29.82,NE,36,3.0,4.0,54,0.00,,,0.01,Wunderground v.1.15,2013-02-23 20:55:00,
2013-02-23 13:59:00,33.5,17.3,29.82,East,79,1.0,2.0,51,0.00,,,0.01,Wunderground v.1.15,2013-02-23 20:59:00,
2013-02-23 14:00:00,33.5,17.3,29.82,East,79,1.0,2.0,51,0.00,,,0.01,Wunderground v.1.15,2013-02-23 21:00:00,
2013-02-23 14:04:00,33.6,17.4,29.82,East,95,1.0,3.0,51,0.00,,,0.01,Wunderground v.1.15,2013-02-23 21:04:00,
2013-02-23 14:05:00,33.7,17.5,29.82,East,93,0.0,3.0,51,0.00,,,0.01,Wunderground v.1.15,2013-02-23 21:05:00,
2013-02-23 14:09:00,34.0,17.7,29.82,East,86,0.0,3.0,51,0.00,,,0.01,Wunderground v.1.15,2013-02-23 21:09:00,
2013-02-23 14:10:00,34.0,17.7,29.82,East,86,0.0,1.0,51,0.00,,,0.01,Wunderground v.1.15,2013-02-23 21:10:00,
2013-02-23 14:14:00,34.3,17.6,29.82,East,82,1.0,3.0,50,0.00,,,0.01,Wunderground v.1.15,2013-02-23 21:14:00,
2013-02-23 14:15:00,34.3,17.6,29.82,ENE,74,2.0,3.0,50,0.00,,,0.01,Wunderground v.1.15,2013-02-23 21:15:00,
2013-02-23 14:20:00,34.5,18.2,29.83,ENE,72,1.0,3.0,51,0.00,,,0.01,Wunderground v.1.15,2013-02-23 21:20:00,
2013-02-23 14:21:00,34.6,18.3,29.82,ESE,102,1.0,3.0,51,0.00,,,0.01,Wunderground v.1.15,2013-02-23 21:21:00,
2013-02-23 14:25:00,34.5,18.2,29.82,East,86,4.0,5.0,51,0.00,,,0.01,Wunderground v.1.15,2013-02-23 21:25:00,
2013-02-23 14:26:00,34.5,17.8,29.82,East,86,3.0,5.0,50,0.00,,,0.01,Wunderground v.1.15,2013-02-23 21:26:00,
2013-02-23 14:30:00,34.5,16.8,29.82,NNE,30,4.0,4.0,48,0.00,,,0.01,Wunderground v.1.15,2013-02-23 21:30:00,
2013-02-23 14:31:00,34.7,17.5,29.82,NE,49,3.0,6.0,49,0.00,,,0.01,Wunderground v.1.15,2013-02-23 21:31:00,
2013-02-23 14:35:00,35.0,18.2,29.82,ENE,68,2.0,7.0,50,0.00,,,0.01,Wunderground v.1.15,2013-02-23 21:35:00,
2013-02-23 14:36:00,35.1,17.8,29.83,East,96,1.0,7.0,49,0.00,,,0.01,Wunderground v.1.15,2013-02-23 21:36:00,
2013-02-23 14:40:00,35.4,18.6,29.83,ENE,67,0.0,3.0,50,0.00,,,0.01,Wunderground v.1.15,2013-02-23 21:40:00,
2013-02-23 14:41:00,35.6,18.8,29.83,NNE,30,4.0,4.0,50,0.00,,,0.01,Wunderground v.1.15,2013-02-23 21:41:00,
2013-02-23 14:45:00,35.7,18.4,29.82,NNW,335,2.0,5.0,49,0.00,,,0.02,Wunderground v.1.15,2013-02-23 21:45:00,
2013-02-23 14:46:00,35.8,19.0,29.82,NNW,333,2.0,5.0,50,0.00,,,0.02,Wunderground v.1.15,2013-02-23 21:46:00,
2013-02-23 14:50:00,36.5,19.6,29.82,NE,43,4.0,5.0,50,0.00,,,0.02,Wunderground v.1.15,2013-02-23 21:50:00,
2013-02-23 14:51:00,36.5,19.6,29.82,North,357,3.0,5.0,50,0.00,,,0.02,Wunderground v.1.15,2013-02-23 21:51:00,
2013-02-23 14:55:00,36.9,19.5,29.83,NNE,20,1.0,5.0,49,0.00,,,0.02,Wunderground v.1.15,2013-02-23 21:55:00,
2013-02-23 14:56:00,36.9,19.5,29.83,NNW,345,1.0,5.0,49,0.00,,,0.02,Wunderground v.1.15,2013-02-23 21:56:00,
2013-02-23 15:00:00,36.9,19.5,29.82,North,6,1.0,3.0,49,0.00,,,0.02,Wunderground v.1.15,2013-02-23 22:00:00,
2013-02-23 15:02:00,37.0,19.6,29.82,NE,37,2.0,3.0,49,0.00,,,0.02,Wunderground v.1.15,2013-02-23 22:02:00,
2013-02-23 15:06:00,37.2,19.8,29.82,ENE,63,1.0,4.0,49,0.00,,,0.03,Wunderground v.1.15,2013-02-23 22:06:00,
2013-02-23 15:07:00,37.3,19.9,29.82,ENE,58,1.0,4.0,49,0.00,,,0.03,Wunderground v.1.15,2013-02-23 22:07:00,
2013-02-23 15:11:00,37.6,20.6,29.82,NE,38,0.0,2.0,50,0.00,,,0.03,Wunderground v.1.15,2013-02-23 22:11:00,
2013-02-23 15:12:00,37.7,20.7,29.82,NE,38,1.0,2.0,50,0.00,,,0.03,Wunderground v.1.15,2013-02-23 22:12:00,
2013-02-23 15:16:00,37.8,19.8,29.81,North,6,2.0,6.0,48,0.00,,,0.03,Wunderground v.1.15,2013-02-23 22:16:00,
2013-02-23 15:17:00,37.8,19.8,29.81,NNE,22,2.0,6.0,48,0.00,,,0.03,Wunderground v.1.15,2013-02-23 22:17:00,
2013-02-23 15:21:00,37.2,19.3,29.82,NNE,33,3.0,5.0,48,0.00,,,0.04,Wunderground v.1.15,2013-02-23 22:21:00,
2013-02-23 15:22:00,37.2,19.8,29.82,NNE,23,4.0,5.0,49,0.00,,,0.04,Wunderground v.1.15,2013-02-23 22:22:00,
2013-02-23 15:23:00,37.1,19.7,29.82,NE,37,4.0,5.0,49,0.00,,,0.04,Wunderground v.1.15,2013-02-23 22:23:00,
2013-02-23 15:27:00,37.1,20.2,29.83,NE,40,3.0,6.0,50,0.00,,,0.04,Wunderground v.1.15,2013-02-23 22:27:00,
2013-02-23 15:28:00,37.2,20.2,29.83,NNE,33,4.0,6.0,50,0.00,,,0.04,Wunderground v.1.15,2013-02-23 22:28:00,
2013-02-23 15:32:00,37.7,20.2,29.82,ENE,71,1.0,3.0,49,0.00,,,0.04,Wunderground v.1.15,2013-02-23 22:32:00,
2013-02-23 15:33:00,37.8,19.3,29.82,NNE,33,3.0,3.0,47,0.00,,,0.04,Wunderground v.1.15,2013-02-23 22:33:00,
2013-02-23 15:37:00,38.0,20.0,29.81,ESE,102,6.0,6.0,48,0.00,,,0.04,Wunderground v.1.15,2013-02-23 22:37:00,
2013-02-23 15:38:00,38.0,19.5,29.82,ENE,74,3.0,6.0,47,0.00,,,0.04,Wunderground v.1.15,2013-02-23 22:38:00,
2013-02-23 15:42:00,38.1,19.6,29.82,East,79,0.0,3.0,47,0.00,,,0.04,Wunderground v.1.15,2013-02-23 22:42:00,
2013-02-23 15:43:00,38.3,19.8,29.82,SE,127,0.0,3.0,47,0.00,,,0.04,Wunderground v.1.15,2013-02-23 22:43:00,
2013-02-23 15:47:00,38.7,18.6,29.82,NE,49,2.0,3.0,44,0.00,,,0.04,Wunderground v.1.15,2013-02-23 22:47:00,
2013-02-23 15:48:00,38.8,18.7,29.82,NE,49,1.0,3.0,44,0.00,,,0.04,Wunderground v.1.15,2013-02-23 22:48:00,
2013-02-23 15:52:00,38.8,18.2,29.82,ENE,77,2.0,4.0,43,0.00,,,0.04,Wunderground v.1.15,2013-02-23 22:52:00,
2013-02-23 15:53:00,38.7,18.1,29.82,ENE,77,1.0,4.0,43,0.00,,,0.04,Wunderground v.1.15,2013-02-23 22:53:00,
2013-02-23 15:57:00,38.5,18.4,29.81,ENE,78,4.0,5.0,44,0.00,,,0.05,Wunderground v.1.15,2013-02-23 22:57:00,
2013-02-23 15:58:00,38.5,19.0,29.81,East,79,3.0,5.0,45,0.00,,,0.05,Wunderground v.1.15,2013-02-23 22:58:00,
2013-02-23 16:02:00,38.4,19.4,29.81,East,81,6.0,7.0,46,0.00,,,0.05,Wunderground v.1.15,2013-02-23 23:02:00,
2013-02-23 16:03:00,38.3,18.3,29.81,ENE,74,4.0,7.0,44,0.00,,,0.05,Wunderground v.1.15,2013-02-23 23:03:00,
2013-02-23 16:07:00,38.1,18.6,29.82,NE,34,2.0,7.0,45,0.00,,,0.05,Wunderground v.1.15,2013-02-23 23:07:00,
2013-02-23 16:08:00,38.1,18.1,29.82,NE,40,0.0,7.0,44,0.00,,,0.05,Wunderground v.1.15,2013-02-23 23:08:00,
2013-02-23 16:09:00,38.1,18.1,29.81,East,89,2.0,7.0,44,0.00,,,0.05,Wunderground v.1.15,2013-02-23 23:09:00,
2013-02-23 16:12:00,37.9,18.4,29.81,NE,49,2.0,6.0,45,0.00,,,0.05,Wunderground v.1.15,2013-02-23 23:12:00,
2013-02-23 16:13:00,37.9,18.9,29.81,NNE,22,2.0,6.0,46,0.00,,,0.05,Wunderground v.1.15,2013-02-23 23:13:00,
2013-02-23 16:14:00,37.9,18.4,29.82,NE,49,5.0,7.0,45,0.00,,,0.05,Wunderground v.1.15,2013-02-23 23:14:00,
2013-02-23 16:17:00,37.8,18.3,29.82,East,98,4.0,7.0,45,0.00,,,0.05,Wunderground v.1.15,2013-02-23 23:17:00,
2013-02-23 16:18:00,37.7,18.8,29.82,ENE,63,5.0,7.0,46,0.00,,,0.05,Wunderground v.1.15,2013-02-23 23:18:00,
2013-02-23 16:19:00,37.8,18.8,29.82,NNE,23,2.0,7.0,46,0.00,,,0.05,Wunderground v.1.15,2013-02-23 23:19:00,
2013-02-23 16:22:00,37.7,17.7,29.82,ENE,78,0.0,4.0,44,0.00,,,0.05,Wunderground v.1.15,2013-02-23 23:22:00,
2013-02-23 16:23:00,37.8,17.8,29.82,NNE,25,2.0,4.0,44,0.00,,,0.05,Wunderground v.1.15,2013-02-23 23:23:00,
2013-02-23 16:24:00,37.8,17.8,29.82,NNE,23,1.0,4.0,44,0.00,,,0.05,Wunderground v.1.15,2013-02-23 23:24:00,
2013-02-23 16:28:00,38.0,18.5,29.81,NNW,345,1.0,4.0,45,0.00,,,0.05,Wunderground v.1.15,2013-02-23 23:28:00,
2013-02-23 16:29:00,38.2,18.7,29.81,NNW,344,0.0,4.0,45,0.00,,,0.05,Wunderground v.1.15,2013-02-23 23:29:00,
2013-02-23 16:33:00,38.7,18.1,29.81,NNW,343,1.0,2.0,43,0.00,,,0.05,Wunderground v.1.15,2013-02-23 23:33:00,
2013-02-23 16:34:00,38.6,17.5,29.81,NW,314,2.0,2.0,42,0.00,,,0.05,Wunderground v.1.15,2013-02-23 23:34:00,
2013-02-23 16:38:00,37.9,17.4,29.81,NW,321,1.0,2.0,43,0.00,,,0.05,Wunderground v.1.15,2013-02-23 23:38:00,
2013-02-23 16:39:00,37.7,17.7,29.81,NW,321,1.0,2.0,44,0.00,,,0.05,Wunderground v.1.15,2013-02-23 23:39:00,
2013-02-23 16:43:00,37.6,17.6,29.81,NW,321,1.0,1.0,44,0.00,,,0.05,Wunderground v.1.15,2013-02-23 23:43:00,
2013-02-23 16:44:00,37.5,17.5,29.81,NW,321,1.0,1.0,44,0.00,,,0.05,Wunderground v.1.15,2013-02-23 23:44:00,
2013-02-23 16:45:00,37.5,18.1,29.81,NW,321,1.0,1.0,45,0.00,,,0.05,Wunderground v.1.15,2013-02-23 23:45:00,
2013-02-23 16:48:00,37.5,17.5,29.81,NW,321,1.0,1.0,44,0.00,,,0.05,Wunderground v.1.15,2013-02-23 23:48:00,
2013-02-23 16:49:00,37.4,16.9,29.81,NW,321,2.0,2.0,43,0.00,,,0.05,Wunderground v.1.15,2013-02-23 23:49:00,
2013-02-23 16:50:00,37.2,16.7,29.81,NW,321,2.0,2.0,43,0.00,,,0.05,Wunderground v.1.15,2013-02-23 23:50:00,
2013-02-23 16:53:00,36.5,17.1,29.80,NNW,330,3.0,3.0,45,0.00,,,0.05,Wunderground v.1.15,2013-02-23 23:53:00,
2013-02-23 16:54:00,36.3,17.0,29.80,North,5,2.0,3.0,45,0.00,,,0.05,Wunderground v.1.15,2013-02-23 23:54:00,
2013-02-23 16:55:00,36.2,17.4,29.81,NNW,328,2.0,3.0,46,0.00,,,0.05,Wunderground v.1.15,2013-02-23 23:55:00,
2013-02-23 16:58:00,35.7,17.4,29.81,NNW,339,1.0,3.0,47,0.00,,,0.05,Wunderground v.1.15,2013-02-23 23:58:00,
2013-02-23 16:59:00,35.6,17.3,29.81,NNW,339,1.0,3.0,47,0.00,,,0.05,Wunderground v.1.15,2013-02-23 23:59:00,
2013-02-23 17:00:00,35.5,17.2,29.81,NNW,339,0.0,2.0,47,0.00,,,0.05,Wunderground v.1.15,2013-02-24 00:00:00,
2013-02-23 17:03:00,35.2,17.4,29.81,NNW,339,0.0,2.0,48,0.00,,,0.05,Wunderground v.1.15,2013-02-24 00:03:00,
2013-02-23 17:04:00,35.1,17.4,29.81,NNW,339,0.0,2.0,48,0.00,,,0.05,Wunderground v.1.15,2013-02-24 00:04:00,
2013-02-23 17:05:00,35.0,17.3,29.81,NNW,339,0.0,2.0,48,0.00,,,0.05,Wunderground v.1.15,2013-02-24 00:05:00,
2013-02-23 17:08:00,34.7,17.5,29.81,NNW,339,0.0,2.0,49,0.00,,,0.05,Wunderground v.1.15,2013-02-24 00:08:00,
2013-02-23 17:09:00,34.6,17.4,29.81,NNW,338,0.0,2.0,49,0.00,,,0.05,Wunderground v.1.15,2013-02-24 00:09:00,
2013-02-23 17:10:00,34.5,17.3,29.81,NNW,339,0.0,0.0,49,0.00,,,0.05,Wunderground v.1.15,2013-02-24 00:10:00,
2013-02-23 17:14:00,34.1,16.9,29.81,NNW,339,0.0,0.0,49,0.00,,,0.05,Wunderground v.1.15,2013-02-24 00:14:00,
2013-02-23 17:15:00,34.0,17.3,29.81,NNW,338,0.0,0.0,50,0.00,,,0.05,Wunderground v.1.15,2013-02-24 00:15:00,
2013-02-23 17:19:00,33.4,17.2,29.81,NNW,338,0.0,1.0,51,0.00,,,0.05,Wunderground v.1.15,2013-02-24 00:19:00,
2013-02-23 17:20:00,33.2,17.5,29.81,NNW,337,0.0,0.0,52,0.00,,,0.05,Wunderground v.1.15,2013-02-24 00:20:00,
2013-02-23 17:24:00,32.8,17.5,29.82,WSW,257,4.0,4.0,53,0.00,,,0.05,Wunderground v.1.15,2013-02-24 00:24:00,
2013-02-23 17:25:00,32.7,17.9,29.82,West,263,3.0,4.0,54,0.00,,,0.05,Wunderground v.1.15,2013-02-24 00:25:00,
2013-02-23 17:29:00,32.5,17.7,29.82,SW,226,0.0,4.0,54,0.00,,,0.05,Wunderground v.1.15,2013-02-24 00:29:00,
2013-02-23 17:30:00,32.4,17.6,29.82,SW,226,0.0,2.0,54,0.00,,,0.05,Wunderground v.1.15,2013-02-24 00:30:00,
2013-02-23 17:31:00,32.3,17.5,29.82,SW,226,0.0,2.0,54,0.00,,,0.05,Wunderground v.1.15,2013-02-24 00:31:00,
2013-02-23 17:34:00,31.9,17.5,29.82,SW,226,1.0,2.0,55,0.00,,,0.05,Wunderground v.1.15,2013-02-24 00:34:00,
2013-02-23 17:35:00,31.8,17.5,29.82,SW,226,0.0,2.0,55,0.00,,,0.05,Wunderground v.1.15,2013-02-24 00:35:00,
2013-02-23 17:36:00,31.8,17.5,29.82,SW,226,1.0,2.0,55,0.00,,,0.05,Wunderground v.1.15,2013-02-24 00:36:00,
2013-02-23 17:39:00,31.5,17.6,29.82,WSW,257,3.0,3.0,56,0.00,,,0.05,Wunderground v.1.15,2013-02-24 00:39:00,
2013-02-23 17:40:00,31.4,17.9,29.82,West,264,2.0,2.0,57,0.00,,,0.05,Wunderground v.1.15,2013-02-24 00:40:00,
2013-02-23 17:41:00,31.3,17.8,29.82,WSW,253,2.0,2.0,57,0.00,,,0.05,Wunderground v.1.15,2013-02-24 00:41:00,
2013-02-23 17:44:00,31.2,17.7,29.82,WSW,255,2.0,3.0,57,0.00,,,0.05,Wunderground v.1.15,2013-02-24 00:44:00,
2013-02-23 17:45:00,31.2,17.7,29.83,WSW,256,3.0,3.0,57,0.00,,,0.05,Wunderground v.1.15,2013-02-24 00:45:00,
2013-02-23 17:46:00,31.2,18.1,29.83,WSW,253,3.0,4.0,58,0.00,,,0.05,Wunderground v.1.15,2013-02-24 00:46:00,
2013-02-23 17:49:00,31.0,17.9,29.83,West,264,4.0,4.0,58,0.00,,,0.05,Wunderground v.1.15,2013-02-24 00:49:00,
2013-02-23 17:50:00,30.9,17.8,29.83,WSW,257,5.0,5.0,58,0.00,,,0.05,Wunderground v.1.15,2013-02-24 00:50:00,
2013-02-23 17:51:00,30.8,18.1,29.83,West,273,3.0,5.0,59,0.00,,,0.05,Wunderground v.1.15,2013-02-24 00:51:00,
2013-02-23 17:54:00,30.7,18.1,29.83,West,273,3.0,5.0,59,0.00,,,0.05,Wunderground v.1.15,2013-02-24 00:54:00,
2013-02-23 17:55:00,30.6,18.3,29.83,WSW,257,3.0,5.0,60,0.00,,,0.05,Wunderground v.1.15,2013-02-24 00:55:00,
2013-02-23 17:56:00,30.6,18.3,29.83,WSW,254,2.0,5.0,60,0.00,,,0.05,Wunderground v.1.15,2013-02-24 00:56:00,
2013-02-23 17:59:00,30.7,18.4,29.83,West,270,2.0,5.0,60,0.00,,,0.05,Wunderground v.1.15,2013-02-24 00:59:00,
2013-02-23 18:00:00,30.6,18.3,29.82,West,270,2.0,3.0,60,0.00,,,0.05,Wunderground v.1.15,2013-02-24 01:00:00,
2013-02-23 18:01:00,30.6,18.3,29.82,West,274,2.0,3.0,60,0.00,,,0.05,Wunderground v.1.15,2013-02-24 01:01:00,
2013-02-23 18:04:00,30.4,18.5,29.82,WSW,243,2.0,3.0,61,0.00,,,0.05,Wunderground v.1.15,2013-02-24 01:04:00,
2013-02-23 18:05:00,30.4,18.5,29.82,SSW,210,2.0,3.0,61,0.00,,,0.05,Wunderground v.1.15,2013-02-24 01:05:00,
2013-02-23 18:06:00,30.4,18.2,29.82,SW,218,2.0,3.0,60,0.00,,,0.05,Wunderground v.1.15,2013-02-24 01:06:00,
2013-02-23 18:07:00,30.4,18.2,29.82,WSW,240,2.0,3.0,60,0.00,,,0.05,Wunderground v.1.15,2013-02-24 01:07:00,
2013-02-23 18:10:00,30.5,18.3,29.82,SSW,195,1.0,2.0,60,0.00,,,0.05,Wunderground v.1.15,2013-02-24 01:10:00,
2013-02-23 18:11:00,30.5,18.6,29.82,SSW,203,2.0,2.0,61,0.00,,,0.05,Wunderground v.1.15,2013-02-24 01:11:00,
2013-02-23 18:12:00,30.5,18.6,29.82,SSW,200,1.0,2.0,61,0.00,,,0.05,Wunderground v.1.15,2013-02-24 01:12:00,
2013-02-23 18:15:00,30.4,18.5,29.82,WSW,258,5.0,5.0,61,0.00,,,0.05,Wunderground v.1.15,2013-02-24 01:15:00,
2013-02-23 18:16:00,30.3,18.5,29.83,West,260,3.0,5.0,61,0.00,,,0.05,Wunderground v.1.15,2013-02-24 01:16:00,
2013-02-23 18:17:00,30.2,18.4,29.82,West,259,2.0,5.0,61,0.00,,,0.05,Wunderground v.1.15,2013-02-24 01:17:00,
2013-02-23 18:20:00,29.9,18.8,29.82,WSW,253,3.0,3.0,63,0.00,,,0.05,Wunderground v.1.15,2013-02-24 01:20:00,
2013-02-23 18:21:00,29.8,18.7,29.82,WSW,248,3.0,3.0,63,0.00,,,0.05,Wunderground v.1.15,2013-02-24 01:21:00,
2013-02-23 18:22:00,29.8,18.7,29.82,SW,235,2.0,3.0,63,0.00,,,0.05,Wunderground v.1.15,2013-02-24 01:22:00,
2013-02-23 18:25:00,29.8,18.7,29.82,SSW,195,2.0,3.0,63,0.00,,,0.05,Wunderground v.1.15,2013-02-24 01:25:00,
2013-02-23 18:26:00,29.9,18.8,29.83,SW,215,2.0,3.0,63,0.00,,,0.05,Wunderground v.1.15,2013-02-24 01:26:00,
2013-02-23 18:27:00,30.0,18.9,29.83,SSW,212,3.0,3.0,63,0.00,,,0.05,Wunderground v.1.15,2013-02-24 01:27:00,
2013-02-23 18:30:00,30.2,18.7,29.83,SW,229,4.0,4.0,62,0.00,,,0.05,Wunderground v.1.15,2013-02-24 01:30:00,
2013-02-23 18:31:00,30.1,19.0,29.83,WSW,248,4.0,4.0,63,0.00,,,0.05,Wunderground v.1.15,2013-02-24 01:31:00,
2013-02-23 18:32:00,30.1,19.0,29.83,WSW,253,3.0,4.0,63,0.00,,,0.05,Wunderground v.1.15,2013-02-24 01:32:00,
2013-02-23 18:35:00,30.2,18.7,29.83,WSW,245,2.0,4.0,62,0.00,,,0.05,Wunderground v.1.15,2013-02-24 01:35:00,
2013-02-23 18:36:00,30.2,18.7,29.83,WSW,245,1.0,4.0,62,0.00,,,0.05,Wunderground v.1.15,2013-02-24 01:36:00,
2013-02-23 18:37:00,30.4,18.9,29.83,SSW,210,2.0,4.0,62,0.00,,,0.05,Wunderground v.1.15,2013-02-24 01:37:00,
2013-02-23 18:40:00,30.5,19.0,29.83,South,190,1.0,2.0,62,0.00,,,0.05,Wunderground v.1.15,2013-02-24 01:40:00,
2013-02-23 18:41:00,30.5,19.0,29.83,SSW,197,1.0,2.0,62,0.00,,,0.05,Wunderground v.1.15,2013-02-24 01:41:00,
2013-02-23 18:43:00,30.4,18.9,29.84,SW,235,2.0,2.0,62,0.00,,,0.05,Wunderground v.1.15,2013-02-24 01:43:00,
2013-02-23 18:45:00,30.2,18.7,29.84,WSW,253,5.0,5.0,62,0.00,,,0.05,Wunderground v.1.15,2013-02-24 01:45:00,
2013-02-23 18:46:00,30.2,19.1,29.84,WSW,256,5.0,5.0,63,0.00,,,0.05,Wunderground v.1.15,2013-02-24 01:46:00,
2013-02-23 18:47:00,30.2,19.1,29.85,WSW,252,6.0,6.0,63,0.00,,,0.05,Wunderground v.1.15,2013-02-24 01:47:00,
2013-02-23 18:48:00,30.1,19.0,29.84,WSW,256,6.0,6.0,63,0.00,,,0.05,Wunderground v.1.15,2013-02-24 01:48:00,
2013-02-23 18:50:00,30.0,19.3,29.85,WSW,255,5.0,6.0,64,0.00,,,0.05,Wunderground v.1.15,2013-02-24 01:50:00,
2013-02-23 18:51:00,30.0,19.3,29.85,WSW,253,5.0,6.0,64,0.00,,,0.05,Wunderground v.1.15,2013-02-24 01:51:00,
2013-02-23 18:52:00,30.0,19.3,29.85,WSW,257,5.0,6.0,64,0.00,,,0.05,Wunderground v.1.15,2013-02-24 01:52:00,
2013-02-23 18:53:00,30.1,19.0,29.85,WSW,256,5.0,6.0,63,0.00,,,0.05,Wunderground v.1.15,2013-02-24 01:53:00,
2013-02-23 18:56:00,30.2,19.5,29.85,West,260,3.0,6.0,64,0.00,,,0.05,Wunderground v.1.15,2013-02-24 01:56:00,
2013-02-23 18:57:00,30.2,19.5,29.85,WSW,256,2.0,6.0,64,0.00,,,0.05,Wunderground v.1.15,2013-02-24 01:57:00,
2013-02-23 18:58:00,30.2,19.5,29.85,WSW,243,4.0,6.0,64,0.00,,,0.05,Wunderground v.1.15,2013-02-24 01:58:00,
2013-02-23 19:01:00,30.3,19.2,29.85,West,264,5.0,5.0,63,0.00,,,0.05,Wunderground v.1.15,2013-02-24 02:01:00,
2013-02-23 19:02:00,30.4,19.3,29.85,West,264,4.0,6.0,63,0.00,,,0.05,Wunderground v.1.15,2013-02-24 02:02:00,
2013-02-23 19:03:00,30.4,19.3,29.85,West,270,6.0,7.0,63,0.00,,,0.05,Wunderground v.1.15,2013-02-24 02:03:00,
2013-02-23 19:06:00,30.4,19.3,29.85,WNW,285,5.0,7.0,63,0.00,,,0.05,Wunderground v.1.15,2013-02-24 02:06:00,
2013-02-23 19:07:00,30.5,19.0,29.85,WNW,283,4.0,7.0,62,0.00,,,0.05,Wunderground v.1.15,2013-02-24 02:07:00,
2013-02-23 19:08:00,31.0,19.1,29.86,WNW,286,3.0,7.0,61,0.00,,,0.05,Wunderground v.1.15,2013-02-24 02:08:00,
2013-02-23 19:11:00,31.8,18.7,29.85,West,281,3.0,6.0,58,0.00,,,0.05,Wunderground v.1.15,2013-02-24 02:11:00,
2013-02-23 19:12:00,31.9,19.2,29.85,WNW,297,2.0,6.0,59,0.00,,,0.05,Wunderground v.1.15,2013-02-24 02:12:00,
2013-02-23 19:13:00,32.1,19.4,29.85,ENE,58,1.0,6.0,59,0.00,,,0.05,Wunderground v.1.15,2013-02-24 02:13:00,
2013-02-23 19:16:00,32.2,19.5,29.85,ENE,58,0.0,6.0,59,0.00,,,0.05,Wunderground v.1.15,2013-02-24 02:16:00,
2013-02-23 19:17:00,32.2,19.5,29.85,ENE,57,1.0,6.0,59,0.00,,,0.05,Wunderground v.1.15,2013-02-24 02:17:00,
2013-02-23 19:19:00,32.1,19.4,29.85,ENE,57,0.0,6.0,59,0.00,,,0.05,Wunderground v.1.15,2013-02-24 02:19:00,
2013-02-23 19:21:00,31.8,19.5,29.85,ENE,57,0.0,2.0,60,0.00,,,0.05,Wunderground v.1.15,2013-02-24 02:21:00,
2013-02-23 19:22:00,31.6,19.3,29.85,ENE,57,2.0,2.0,60,0.00,,,0.05,Wunderground v.1.15,2013-02-24 02:22:00,
2013-02-23 19:24:00,31.5,19.2,29.85,ENE,57,0.0,2.0,60,0.00,,,0.05,Wunderground v.1.15,2013-02-24 02:24:00,
2013-02-23 19:26:00,31.4,19.1,29.85,SSE,162,2.0,2.0,60,0.00,,,0.05,Wunderground v.1.15,2013-02-24 02:26:00,
2013-02-23 19:27:00,31.4,19.1,29.85,SSE,162,1.0,2.0,60,0.00,,,0.05,Wunderground v.1.15,2013-02-24 02:27:00,
2013-02-23 19:28:00,31.5,19.2,29.85,SE,140,2.0,2.0,60,0.00,,,0.05,Wunderground v.1.15,2013-02-24 02:28:00,
2013-02-23 19:29:00,31.5,19.2,29.85,SE,131,2.0,2.0,60,0.00,,,0.05,Wunderground v.1.15,2013-02-24 02:29:00,
2013-02-23 19:31:00,31.6,19.3,29.85,SE,132,1.0,2.0,60,0.00,,,0.05,Wunderground v.1.15,2013-02-24 02:31:00,
2013-02-23 19:32:00,31.6,19.3,29.85,SE,133,0.0,2.0,60,0.00,,,0.05,Wunderground v.1.15,2013-02-24 02:32:00,
2013-02-23 19:33:00,31.6,19.3,29.85,SE,132,0.0,2.0,60,0.00,,,0.05,Wunderground v.1.15,2013-02-24 02:33:00,
2013-02-23 19:34:00,31.6,19.3,29.85,SE,145,1.0,2.0,60,0.00,,,0.05,Wunderground v.1.15,2013-02-24 02:34:00,
2013-02-23 19:36:00,31.6,19.3,29.85,SW,221,0.0,2.0,60,0.00,,,0.05,Wunderground v.1.15,2013-02-24 02:36:00,
2013-02-23 19:37:00,31.6,19.3,29.85,SW,221,0.0,2.0,60,0.00,,,0.05,Wunderground v.1.15,2013-02-24 02:37:00,
2013-02-23 19:38:00,31.6,19.3,29.85,SW,221,0.0,2.0,60,0.00,,,0.05,Wunderground v.1.15,2013-02-24 02:38:00,
2013-02-23 19:39:00,31.5,19.2,29.85,SW,221,0.0,2.0,60,0.00,,,0.05,Wunderground v.1.15,2013-02-24 02:39:00,
2013-02-23 19:41:00,31.5,19.6,29.85,SW,221,0.0,1.0,61,0.00,,,0.05,Wunderground v.1.15,2013-02-24 02:41:00,
2013-02-23 19:42:00,31.5,19.6,29.85,SW,221,0.0,1.0,61,0.00,,,0.05,Wunderground v.1.15,2013-02-24 02:42:00,
2013-02-23 19:43:00,31.5,19.6,29.85,SW,221,0.0,1.0,61,0.00,,,0.05,Wunderground v.1.15,2013-02-24 02:43:00,
2013-02-23 19:44:00,31.4,19.9,29.85,SW,221,0.0,1.0,62,0.00,,,0.05,Wunderground v.1.15,2013-02-24 02:44:00,
2013-02-23 19:47:00,31.4,19.5,29.85,SW,221,0.0,1.0,61,0.00,,,0.05,Wunderground v.1.15,2013-02-24 02:47:00,
2013-02-23 19:48:00,31.4,19.5,29.85,SW,221,1.0,1.0,61,0.00,,,0.05,Wunderground v.1.15,2013-02-24 02:48:00,
2013-02-23 19:49:00,31.3,19.4,29.86,SW,221,0.0,1.0,61,0.00,,,0.05,Wunderground v.1.15,2013-02-24 02:49:00,
2013-02-23 19:52:00,31.3,19.4,29.86,SW,221,0.0,0.0,61,0.00,,,0.05,Wunderground v.1.15,2013-02-24 02:52:00,
2013-02-23 19:53:00,31.4,19.5,29.86,SW,221,0.0,0.0,61,0.00,,,0.05,Wunderground v.1.15,2013-02-24 02:53:00,
2013-02-23 19:55:00,31.4,19.5,29.86,SW,221,0.0,0.0,61,0.00,,,0.05,Wunderground v.1.15,2013-02-24 02:55:00,
2013-02-23 19:57:00,31.4,19.5,29.85,SW,221,0.0,0.0,61,0.00,,,0.05,Wunderground v.1.15,2013-02-24 02:57:00,
2013-02-23 19:58:00,31.4,19.5,29.86,SW,221,0.0,0.0,61,0.00,,,0.05,Wunderground v.1.15,2013-02-24 02:58:00,
2013-02-23 20:00:00,31.4,19.1,29.86,SW,221,0.0,0.0,60,0.00,,,0.05,Wunderground v.1.15,2013-02-24 03:00:00,
2013-02-23 20:02:00,31.4,19.5,29.86,SE,145,1.0,1.0,61,0.00,,,0.05,Wunderground v.1.15,2013-02-24 03:02:00,
2013-02-23 20:03:00,31.4,19.5,29.86,SE,145,0.0,1.0,61,0.00,,,0.05,Wunderground v.1.15,2013-02-24 03:03:00,
2013-02-23 20:06:00,31.4,19.5,29.86,SE,145,0.0,2.0,61,0.00,,,0.05,Wunderground v.1.15,2013-02-24 03:06:00,
2013-02-23 20:07:00,31.5,19.6,29.86,SE,145,0.0,2.0,61,0.00,,,0.05,Wunderground v.1.15,2013-02-24 03:07:00,
2013-02-23 20:08:00,31.5,19.6,29.86,SE,145,0.0,2.0,61,0.00,,,0.05,Wunderground v.1.15,2013-02-24 03:08:00,
2013-02-23 20:11:00,31.4,19.9,29.86,SE,145,1.0,1.0,62,0.00,,,0.05,Wunderground v.1.15,2013-02-24 03:11:00,
2013-02-23 20:12:00,31.4,20.2,29.87,SE,145,2.0,2.0,63,0.00,,,0.05,Wunderground v.1.15,2013-02-24 03:12:00,
2013-02-23 20:13:00,31.4,20.2,29.87,NW,311,2.0,2.0,63,0.00,,,0.05,Wunderground v.1.15,2013-02-24 03:13:00,
2013-02-23 20:16:00,31.3,20.2,29.87,NW,311,0.0,2.0,63,0.00,,,0.05,Wunderground v.1.15,2013-02-24 03:16:00,
2013-02-23 20:17:00,31.3,19.8,29.87,NW,311,0.0,2.0,62,0.00,,,0.05,Wunderground v.1.15,2013-02-24 03:17:00,
2013-02-23 20:18:00,31.3,19.8,29.87,NW,311,0.0,2.0,62,0.00,,,0.05,Wunderground v.1.15,2013-02-24 03:18:00,
2013-02-23 20:21:00,31.3,19.8,29.87,NW,309,0.0,1.0,62,0.00,,,0.05,Wunderground v.1.15,2013-02-24 03:21:00,
2013-02-23 20:22:00,31.3,19.8,29.87,NW,309,0.0,1.0,62,0.00,,,0.05,Wunderground v.1.15,2013-02-24 03:22:00,
2013-02-23 20:23:00,31.3,19.8,29.87,NW,309,0.0,1.0,62,0.00,,,0.05,Wunderground v.1.15,2013-02-24 03:23:00,
2013-02-23 20:26:00,31.3,19.8,29.87,NW,309,1.0,1.0,62,0.00,,,0.05,Wunderground v.1.15,2013-02-24 03:26:00,
2013-02-23 20:27:00,31.3,19.4,29.87,NW,309,0.0,1.0,61,0.00,,,0.05,Wunderground v.1.15,2013-02-24 03:27:00,
2013-02-23 20:28:00,31.3,19.4,29.88,NW,309,0.0,1.0,61,0.00,,,0.05,Wunderground v.1.15,2013-02-24 03:28:00,
2013-02-23 20:31:00,31.4,19.1,29.88,NW,309,0.0,0.0,60,0.00,,,0.05,Wunderground v.1.15,2013-02-24 03:31:00,
2013-02-23 20:33:00,31.4,19.5,29.88,NW,309,1.0,1.0,61,0.00,,,0.05,Wunderground v.1.15,2013-02-24 03:33:00,
2013-02-23 20:36:00,31.4,19.9,29.88,SW,225,1.0,2.0,62,0.00,,,0.05,Wunderground v.1.15,2013-02-24 03:36:00,
2013-02-23 20:38:00,31.4,19.9,29.88,SW,225,0.0,2.0,62,0.00,,,0.05,Wunderground v.1.15,2013-02-24 03:38:00,
2013-02-23 20:41:00,31.4,19.5,29.88,SW,225,0.0,0.0,61,0.00,,,0.05,Wunderground v.1.15,2013-02-24 03:41:00,
2013-02-23 20:43:00,31.4,19.5,29.88,SW,225,0.0,0.0,61,0.00,,,0.05,Wunderground v.1.15,2013-02-24 03:43:00,
2013-02-23 20:44:00,31.4,19.5,29.88,SW,224,0.0,0.0,61,0.00,,,0.05,Wunderground v.1.15,2013-02-24 03:44:00,
2013-02-23 20:47:00,31.5,19.6,29.88,SW,225,0.0,1.0,61,0.00,,,0.05,Wunderground v.1.15,2013-02-24 03:47:00,
2013-02-23 20:48:00,31.5,19.2,29.88,SW,225,0.0,1.0,60,0.00,,,0.05,Wunderground v.1.15,2013-02-24 03:48:00,
2013-02-23 20:49:00,31.6,19.7,29.88,SW,225,1.0,1.0,61,0.00,,,0.05,Wunderground v.1.15,2013-02-24 03:49:00,
2013-02-23 20:52:00,31.5,20.0,29.89,WSW,253,2.0,2.0,62,0.00,,,0.05,Wunderground v.1.15,2013-02-24 03:52:00,
2013-02-23 20:53:00,31.5,20.0,29.89,WSW,256,2.0,2.0,62,0.00,,,0.05,Wunderground v.1.15,2013-02-24 03:53:00,
2013-02-23 20:54:00,31.5,20.0,29.89,West,264,2.0,2.0,62,0.00,,,0.05,Wunderground v.1.15,2013-02-24 03:54:00,
2013-02-23 20:57:00,31.6,20.1,29.89,WSW,257,3.0,3.0,62,0.00,,,0.05,Wunderground v.1.15,2013-02-24 03:57:00,
2013-02-23 20:58:00,31.6,19.7,29.89,WSW,252,2.0,3.0,61,0.00,,,0.05,Wunderground v.1.15,2013-02-24 03:58:00,
2013-02-23 20:59:00,31.7,19.8,29.89,WSW,248,2.0,3.0,61,0.00,,,0.05,Wunderground v.1.15,2013-02-24 03:59:00,
2013-02-23 21:02:00,31.8,19.1,29.89,WSW,240,0.0,2.0,59,0.00,,,0.05,Wunderground v.1.15,2013-02-24 04:02:00,
2013-02-23 21:03:00,31.9,19.2,29.90,WSW,240,0.0,2.0,59,0.00,,,0.05,Wunderground v.1.15,2013-02-24 04:03:00,
2013-02-23 21:04:00,31.9,19.2,29.90,WSW,240,0.0,2.0,59,0.00,,,0.05,Wunderground v.1.15,2013-02-24 04:04:00,
2013-02-23 21:05:00,31.9,19.2,29.89,WSW,240,0.0,2.0,59,0.00,,,0.05,Wunderground v.1.15,2013-02-24 04:05:00,
2013-02-23 21:07:00,32.0,19.7,29.89,WSW,240,0.0,2.0,60,0.00,,,0.05,Wunderground v.1.15,2013-02-24 04:07:00,
2013-02-23 21:08:00,32.0,19.7,29.89,WSW,240,0.0,2.0,60,0.00,,,0.05,Wunderground v.1.15,2013-02-24 04:08:00,
2013-02-23 21:09:00,32.0,20.1,29.90,WSW,240,0.0,2.0,61,0.00,,,0.05,Wunderground v.1.15,2013-02-24 04:09:00,
2013-02-23 21:10:00,32.0,20.1,29.90,WSW,240,0.0,0.0,61,0.00,,,0.05,Wunderground v.1.15,2013-02-24 04:10:00,
2013-02-23 21:12:00,31.9,20.3,29.90,WSW,240,0.0,1.0,62,0.00,,,0.05,Wunderground v.1.15,2013-02-24 04:12:00,
2013-02-23 21:14:00,31.8,20.6,29.89,WSW,240,0.0,1.0,63,0.00,,,0.05,Wunderground v.1.15,2013-02-24 04:14:00,
2013-02-23 21:15:00,31.7,20.2,29.90,WSW,240,0.0,1.0,62,0.00,,,0.05,Wunderground v.1.15,2013-02-24 04:15:00,
2013-02-23 21:17:00,31.6,20.8,29.90,WSW,240,0.0,1.0,64,0.00,,,0.05,Wunderground v.1.15,2013-02-24 04:17:00,
2013-02-23 21:19:00,31.5,21.1,29.90,WSW,240,0.0,1.0,65,0.00,,,0.05,Wunderground v.1.15,2013-02-24 04:19:00,
2013-02-23 21:20:00,31.4,21.0,29.90,WSW,240,0.0,0.0,65,0.00,,,0.05,Wunderground v.1.15,2013-02-24 04:20:00,
2013-02-23 21:22:00,31.4,20.6,29.90,NNE,23,2.0,2.0,64,0.00,,,0.05,Wunderground v.1.15,2013-02-24 04:22:00,
2013-02-23 21:24:00,31.3,20.5,29.90,NNE,23,2.0,2.0,64,0.00,,,0.05,Wunderground v.1.15,2013-02-24 04:24:00,
2013-02-23 21:25:00,31.3,20.2,29.90,NNE,25,2.0,2.0,63,0.00,,,0.05,Wunderground v.1.15,2013-02-24 04:25:00,
2013-02-23 21:26:00,31.3,20.2,29.90,NE,34,3.0,3.0,63,0.00,,,0.05,Wunderground v.1.15,2013-02-24 04:26:00,
2013-02-23 21:27:00,31.4,20.6,29.90,NE,41,0.0,3.0,64,0.00,,,0.05,Wunderground v.1.15,2013-02-24 04:27:00,
2013-02-23 21:29:00,31.4,20.6,29.90,ENE,72,4.0,4.0,64,0.00,,,0.05,Wunderground v.1.15,2013-02-24 04:29:00,
2013-02-23 21:31:00,31.4,20.6,29.90,NE,51,2.0,4.0,64,0.00,,,0.05,Wunderground v.1.15,2013-02-24 04:31:00,
2013-02-23 21:33:00,31.4,21.0,29.90,NNE,33,4.0,6.0,65,0.00,,,0.05,Wunderground v.1.15,2013-02-24 04:33:00,
2013-02-23 21:34:00,31.4,21.0,29.90,NE,36,4.0,6.0,65,0.00,,,0.05,Wunderground v.1.15,2013-02-24 04:34:00,
2013-02-23 21:35:00,31.4,21.0,29.90,NNE,33,2.0,6.0,65,0.00,,,0.05,Wunderground v.1.15,2013-02-24 04:35:00,
2013-02-23 21:36:00,31.3,21.3,29.90,NNE,30,2.0,6.0,66,0.00,,,0.05,Wunderground v.1.15,2013-02-24 04:36:00,
2013-02-23 21:39:00,31.3,22.0,29.91,NNE,30,3.0,7.0,68,0.00,,,0.05,Wunderground v.1.15,2013-02-24 04:39:00,
2013-02-23 21:40:00,31.3,22.3,29.91,NE,44,10.0,10.0,69,0.00,,,0.05,Wunderground v.1.15,2013-02-24 04:40:00,
2013-02-23 21:41:00,31.3,22.6,29.91,NNE,20,9.0,10.0,70,0.00,,,0.05,Wunderground v.1.15,2013-02-24 04:41:00,
2013-02-23 21:44:00,31.6,24.6,29.91,NNE,26,9.0,12.0,75,0.00,,,0.05,Wunderground v.1.15,2013-02-24 04:44:00,
2013-02-23 21:45:00,31.6,25.2,29.91,NE,43,8.0,12.0,77,0.00,,,0.05,Wunderground v.1.15,2013-02-24 04:45:00,
2013-02-23 21:46:00,31.5,25.7,29.91,NNE,16,11.0,14.0,79,0.00,,,0.05,Wunderground v.1.15,2013-02-24 04:46:00,
2013-02-23 21:49:00,31.1,26.2,29.91,NNE,27,9.0,14.0,82,0.00,,,0.05,Wunderground v.1.15,2013-02-24 04:49:00,
2013-02-23 21:50:00,31.1,26.2,29.91,NE,41,8.0,9.0,82,0.00,,,0.05,Wunderground v.1.15,2013-02-24 04:50:00,
2013-02-23 21:51:00,30.9,26.3,29.91,NNE,20,7.0,11.0,83,0.00,,,0.05,Wunderground v.1.15,2013-02-24 04:51:00,
2013-02-23 21:54:00,30.6,26.3,29.91,NE,43,8.0,11.0,84,0.00,,,0.05,Wunderground v.1.15,2013-02-24 04:54:00,
2013-02-23 21:55:00,30.6,26.3,29.91,ENE,58,5.0,11.0,84,0.00,,,0.05,Wunderground v.1.15,2013-02-24 04:55:00,
2013-02-23 21:56:00,30.5,26.5,29.91,NE,48,4.0,11.0,85,0.00,,,0.05,Wunderground v.1.15,2013-02-24 04:56:00,
2013-02-23 21:59:00,30.3,26.3,29.91,ESE,115,2.0,11.0,85,0.00,,,0.05,Wunderground v.1.15,2013-02-24 04:59:00,
2013-02-23 22:00:00,30.2,26.5,29.91,ENE,63,1.0,6.0,86,0.00,,,0.05,Wunderground v.1.15,2013-02-24 05:00:00,
2013-02-23 22:05:00,30.1,26.4,29.91,NE,41,4.0,6.0,86,0.00,,,0.05,Wunderground v.1.15,2013-02-24 05:05:00,
2013-02-23 22:10:00,29.9,26.5,29.91,NNE,27,2.0,3.0,87,0.00,,,0.05,Wunderground v.1.15,2013-02-24 05:10:00,
2013-02-23 22:15:00,29.9,26.5,29.91,NNE,33,4.0,7.0,87,0.00,,,0.05,Wunderground v.1.15,2013-02-24 05:15:00,
2013-02-23 22:20:00,29.8,26.4,29.91,ENE,58,2.0,4.0,87,0.00,,,0.05,Wunderground v.1.15,2013-02-24 05:20:00,
2013-02-23 22:25:00,29.8,26.4,29.91,ENE,68,4.0,6.0,87,0.00,,,0.05,Wunderground v.1.15,2013-02-24 05:25:00,
2013-02-23 22:27:00,29.8,26.4,29.90,ENE,77,2.0,6.0,87,0.00,,,0.05,Wunderground v.1.15,2013-02-24 05:27:00,
2013-02-23 22:30:00,29.8,26.7,29.90,East,84,5.0,5.0,88,0.00,,,0.05,Wunderground v.1.15,2013-02-24 05:30:00,
2013-02-23 22:32:00,29.8,26.7,29.90,East,84,3.0,5.0,88,0.00,,,0.05,Wunderground v.1.15,2013-02-24 05:32:00,
2013-02-23 22:35:00,29.8,26.7,29.90,ENE,70,2.0,5.0,88,0.00,,,0.05,Wunderground v.1.15,2013-02-24 05:35:00,
2013-02-23 22:37:00,29.8,26.7,29.90,ENE,70,2.0,5.0,88,0.00,,,0.05,Wunderground v.1.15,2013-02-24 05:37:00,
2013-02-23 22:40:00,29.9,26.8,29.90,NE,53,3.0,4.0,88,0.00,,,0.05,Wunderground v.1.15,2013-02-24 05:40:00,
2013-02-23 22:41:00,29.8,26.7,29.90,ESE,107,2.0,4.0,88,0.00,,,0.05,Wunderground v.1.15,2013-02-24 05:41:00,
2013-02-23 22:42:00,29.9,26.8,29.90,NNE,29,8.0,8.0,88,0.00,,,0.05,Wunderground v.1.15,2013-02-24 05:42:00,
2013-02-23 22:45:00,29.9,26.8,29.90,NNE,27,6.0,9.0,88,0.00,,,0.05,Wunderground v.1.15,2013-02-24 05:45:00,
2013-02-23 22:46:00,29.9,26.8,29.90,NNE,22,6.0,9.0,88,0.00,,,0.05,Wunderground v.1.15,2013-02-24 05:46:00,
2013-02-23 22:47:00,29.9,26.8,29.90,ENE,60,4.0,9.0,88,0.00,,,0.05,Wunderground v.1.15,2013-02-24 05:47:00,
2013-02-23 22:50:00,29.9,27.1,29.90,NE,47,3.0,5.0,89,0.00,,,0.05,Wunderground v.1.15,2013-02-24 05:50:00,
2013-02-23 22:51:00,29.8,27.0,29.90,ENE,58,4.0,5.0,89,0.00,,,0.05,Wunderground v.1.15,2013-02-24 05:51:00,
2013-02-23 22:53:00,29.8,27.0,29.90,NNE,26,6.0,6.0,89,0.00,,,0.05,Wunderground v.1.15,2013-02-24 05:53:00,
2013-02-23 22:55:00,29.8,26.7,29.90,East,79,3.0,6.0,88,0.00,,,0.05,Wunderground v.1.15,2013-02-24 05:55:00,
2013-02-23 22:56:00,29.8,26.7,29.90,NE,48,2.0,6.0,88,0.00,,,0.05,Wunderground v.1.15,2013-02-24 05:56:00,
2013-02-23 22:58:00,29.8,26.7,29.90,NNE,29,2.0,6.0,88,0.00,,,0.05,Wunderground v.1.15,2013-02-24 05:58:00,
2013-02-23 23:00:00,29.8,26.7,29.89,North,356,6.0,9.0,88,0.00,,,0.05,Wunderground v.1.15,2013-02-24 06:00:00,
2013-02-23 23:01:00,29.8,26.7,29.89,North,5,7.0,9.0,88,0.00,,,0.05,Wunderground v.1.15,2013-02-24 06:01:00,
2013-02-23 23:03:00,29.8,26.4,29.89,NE,48,7.0,10.0,87,0.00,,,0.05,Wunderground v.1.15,2013-02-24 06:03:00,
2013-02-23 23:05:00,29.9,26.2,29.89,North,9,4.0,10.0,86,0.00,,,0.05,Wunderground v.1.15,2013-02-24 06:05:00,
2013-02-23 23:06:00,29.9,26.2,29.89,NNE,30,5.0,10.0,86,0.00,,,0.05,Wunderground v.1.15,2013-02-24 06:06:00,
2013-02-23 23:08:00,29.9,26.2,29.89,NE,41,4.0,10.0,86,0.00,,,0.05,Wunderground v.1.15,2013-02-24 06:08:00,
2013-02-23 23:10:00,29.9,25.9,29.89,NE,36,3.0,7.0,85,0.00,,,0.05,Wunderground v.1.15,2013-02-24 06:10:00,
2013-02-23 23:11:00,29.9,25.9,29.89,NNE,20,5.0,7.0,85,0.00,,,0.05,Wunderground v.1.15,2013-02-24 06:11:00,
2013-02-23 23:14:00,29.9,25.9,29.89,NNE,20,6.0,7.0,85,0.00,,,0.05,Wunderground v.1.15,2013-02-24 06:14:00,
2013-02-23 23:16:00,29.9,25.9,29.89,NE,41,4.0,7.0,85,0.00,,,0.05,Wunderground v.1.15,2013-02-24 06:16:00,
2013-02-23 23:19:00,29.9,25.9,29.89,NE,51,4.0,7.0,85,0.00,,,0.05,Wunderground v.1.15,2013-02-24 06:19:00,
2013-02-23 23:21:00,29.9,25.9,29.89,NE,41,4.0,6.0,85,0.00,,,0.05,Wunderground v.1.15,2013-02-24 06:21:00,
2013-02-23 23:24:00,30.0,26.0,29.89,ENE,58,3.0,6.0,85,0.00,,,0.05,Wunderground v.1.15,2013-02-24 06:24:00,
2013-02-23 23:26:00,30.0,26.0,29.89,NE,36,4.0,6.0,85,0.00,,,0.05,Wunderground v.1.15,2013-02-24 06:26:00,
2013-02-23 23:29:00,30.0,26.0,29.89,East,85,1.0,6.0,85,0.00,,,0.05,Wunderground v.1.15,2013-02-24 06:29:00,
2013-02-23 23:31:00,30.0,26.0,29.90,East,87,2.0,3.0,85,0.00,,,0.05,Wunderground v.1.15,2013-02-24 06:31:00,
2013-02-23 23:32:00,30.0,26.0,29.90,ENE,77,1.0,3.0,85,0.00,,,0.05,Wunderground v.1.15,2013-02-24 06:32:00,
2013-02-23 23:34:00,29.9,26.2,29.90,ENE,72,1.0,3.0,86,0.00,,,0.05,Wunderground v.1.15,2013-02-24 06:34:00,
2013-02-23 23:36:00,29.9,26.2,29.90,East,98,2.0,3.0,86,0.00,,,0.05,Wunderground v.1.15,2013-02-24 06:36:00,
2013-02-23 23:37:00,29.9,26.2,29.90,East,98,2.0,3.0,86,0.00,,,0.05,Wunderground v.1.15,2013-02-24 06:37:00,
2013-02-23 23:40:00,29.9,26.2,29.91,ESE,102,2.0,2.0,86,0.00,,,0.05,Wunderground v.1.15,2013-02-24 06:40:00,
2013-02-23 23:41:00,29.9,26.5,29.91,East,96,2.0,3.0,87,0.00,,,0.05,Wunderground v.1.15,2013-02-24 06:41:00,
2013-02-23 23:42:00,29.8,26.4,29.91,East,91,2.0,3.0,87,0.00,,,0.05,Wunderground v.1.15,2013-02-24 06:42:00,
2013-02-23 23:45:00,29.8,26.4,29.91,East,95,3.0,4.0,87,0.00,,,0.05,Wunderground v.1.15,2013-02-24 06:45:00,
2013-02-23 23:46:00,29.8,26.4,29.91,ENE,70,2.0,4.0,87,0.00,,,0.05,Wunderground v.1.15,2013-02-24 06:46:00,
2013-02-23 23:47:00,29.8,26.4,29.91,ENE,70,2.0,4.0,87,0.00,,,0.05,Wunderground v.1.15,2013-02-24 06:47:00,
2013-02-23 23:50:00,29.8,26.7,29.91,ENE,68,4.0,4.0,88,0.00,,,0.05,Wunderground v.1.15,2013-02-24 06:50:00,
2013-02-23 23:52:00,29.7,26.6,29.91,East,83,1.0,4.0,88,0.00,,,0.05,Wunderground v.1.15,2013-02-24 06:52:00,
2013-02-23 23:55:00,29.6,26.5,29.91,East,86,3.0,7.0,88,0.00,,,0.05,Wunderground v.1.15,2013-02-24 06:55:00,
2013-02-23 23:57:00,29.6,26.5,29.91,NNE,26,6.0,7.0,88,0.00,,,0.05,Wunderground v.1.15,2013-02-24 06:57:00,